ANA112 RJTT-KORD

Flight info

Callsign ANA112
Flight time 11h 20m
Altitude 31000
Route INUBO Y808 IGARA Y815 MAKMU R580 OMOTO/N0497F330 R580 OPHET DCT 55N180E 57N170W 58N160W 58N150W/N0488F350 58N140W 57N130W 55N120W DCT REFEX DCT UDBOX/N0493F370 DCT HML DCT SHIKY FYTTE7
Aircraft B77W/H-SDE1E2E3FGHIJ2J3J4J5M1RWXY/LB1D1

Departure

Time 2026-05-06 14:07
Airport Tokyo Haneda International Airport (RJTT)

Arrival

Time 2026-05-07 01:27
Airport Chicago O'Hare International Airport (KORD)
Time Latitude Longitude Altitude Speed Heading
2026-05-06 13:04 35.54205 139.77260 28 ft 0 kts 240°
2026-05-06 13:43 35.54207 139.77264 28 ft 3 kts 239°
2026-05-06 13:43 35.54221 139.77290 27 ft 4 kts 225°
2026-05-06 13:43 35.54239 139.77307 26 ft 4 kts 195°
2026-05-06 13:43 35.54260 139.77311 26 ft 4 kts 186°
2026-05-06 13:44 35.54286 139.77314 26 ft 4 kts 186°
2026-05-06 13:44 35.54313 139.77317 31 ft 4 kts 186°
2026-05-06 13:44 35.54334 139.77320 30 ft 4 kts 176°
2026-05-06 13:44 35.54359 139.77314 31 ft 4 kts 155°
2026-05-06 13:45 35.54382 139.77299 31 ft 2 kts 149°
2026-05-06 13:45 35.54403 139.77283 31 ft 1 kts 150°
2026-05-06 13:49 35.54386 139.77295 30 ft 7 kts 150°
2026-05-06 13:50 35.54358 139.77349 26 ft 8 kts 100°
2026-05-06 13:50 35.54370 139.77412 27 ft 8 kts 62°
2026-05-06 13:50 35.54405 139.77487 28 ft 12 kts 60°
2026-05-06 13:50 35.54442 139.77575 27 ft 12 kts 78°
2026-05-06 13:51 35.54404 139.77656 27 ft 12 kts 147°
2026-05-06 13:51 35.54333 139.77706 27 ft 12 kts 150°
2026-05-06 13:51 35.54253 139.77763 27 ft 16 kts 150°
2026-05-06 13:51 35.54154 139.77833 26 ft 16 kts 150°
2026-05-06 13:52 35.54091 139.77878 26 ft 0 kts 150°
2026-05-06 13:53 35.54091 139.77879 26 ft 1 kts 150°
2026-05-06 13:54 35.54057 139.77902 30 ft 9 kts 150°
2026-05-06 13:54 35.54022 139.77964 27 ft 9 kts 96°
2026-05-06 13:54 35.54047 139.78039 26 ft 10 kts 60°
2026-05-06 13:54 35.54095 139.78139 28 ft 18 kts 59°
2026-05-06 13:55 35.54161 139.78278 32 ft 19 kts 60°
2026-05-06 13:55 35.54228 139.78420 27 ft 19 kts 59°
2026-05-06 13:55 35.54295 139.78562 31 ft 19 kts 60°
2026-05-06 13:55 35.54348 139.78674 35 ft 12 kts 60°
2026-05-06 13:56 35.54389 139.78760 37 ft 11 kts 60°
2026-05-06 13:56 35.54426 139.78838 40 ft 11 kts 60°
2026-05-06 13:56 35.54464 139.78917 43 ft 11 kts 60°
2026-05-06 13:56 35.54502 139.78998 44 ft 11 kts 59°
2026-05-06 13:57 35.54541 139.79080 43 ft 11 kts 59°
2026-05-06 13:57 35.54579 139.79161 40 ft 8 kts 60°
2026-05-06 13:57 35.54583 139.79169 39 ft 0 kts 60°
2026-05-06 13:58 35.54585 139.79173 39 ft 3 kts 60°
2026-05-06 13:58 35.54618 139.79241 36 ft 15 kts 60°
2026-05-06 13:58 35.54673 139.79360 32 ft 17 kts 59°
2026-05-06 13:59 35.54730 139.79477 32 ft 15 kts 60°
2026-05-06 13:59 35.54782 139.79589 30 ft 12 kts 59°
2026-05-06 13:59 35.54848 139.79632 30 ft 12 kts 352°
2026-05-06 13:59 35.54920 139.79585 30 ft 13 kts 330°
2026-05-06 14:00 35.54999 139.79529 31 ft 13 kts 330°
2026-05-06 14:00 35.55082 139.79470 32 ft 16 kts 330°
2026-05-06 14:00 35.55200 139.79387 31 ft 20 kts 329°
2026-05-06 14:00 35.55322 139.79299 32 ft 20 kts 330°
2026-05-06 14:01 35.55445 139.79212 31 ft 20 kts 330°
2026-05-06 14:01 35.55569 139.79125 31 ft 20 kts 330°
2026-05-06 14:01 35.55690 139.79039 30 ft 20 kts 329°
2026-05-06 14:01 35.55814 139.78951 30 ft 20 kts 330°
2026-05-06 14:02 35.55937 139.78863 29 ft 20 kts 330°
2026-05-06 14:02 35.56060 139.78776 29 ft 20 kts 330°
2026-05-06 14:02 35.56181 139.78690 28 ft 20 kts 329°
2026-05-06 14:02 35.56304 139.78603 29 ft 20 kts 330°
2026-05-06 14:03 35.56417 139.78523 30 ft 16 kts 329°
2026-05-06 14:03 35.56477 139.78488 30 ft 7 kts
2026-05-06 14:03 35.56511 139.78524 30 ft 1 kts 54°
2026-05-06 14:03 35.56512 139.78528 30 ft 0 kts 59°
2026-05-06 14:04 35.56513 139.78528 30 ft 1 kts 59°
2026-05-06 14:05 35.56527 139.78557 31 ft 7 kts 59°
2026-05-06 14:05 35.56554 139.78613 33 ft 7 kts 59°
2026-05-06 14:05 35.56557 139.78671 35 ft 7 kts 123°
2026-05-06 14:05 35.56535 139.78693 35 ft 0 kts 149°
2026-05-06 14:06 35.56461 139.78746 35 ft 41 kts 150°
2026-05-06 14:06 35.55968 139.79095 32 ft 121 kts 150°
2026-05-06 14:06 35.55030 139.79759 36 ft 189 kts 150°
2026-05-06 14:07 35.53834 139.80600 523 ft 201 kts 151°
2026-05-06 14:07 35.52702 139.81616 1248 ft 205 kts 137°
2026-05-06 14:07 35.51677 139.82980 1515 ft 229 kts 136°
2026-05-06 14:07 35.50580 139.84426 1989 ft 241 kts 137°
2026-05-06 14:08 35.49388 139.85972 2403 ft 254 kts 137°
2026-05-06 14:08 35.48139 139.87578 2957 ft 263 kts 137°
2026-05-06 14:08 35.46862 139.89214 3628 ft 267 kts 137°
2026-05-06 14:08 35.45730 139.91049 4230 ft 276 kts 116°
2026-05-06 14:09 35.45341 139.93356 4864 ft 287 kts 89°
2026-05-06 14:09 35.45835 139.95731 5536 ft 293 kts 62°
2026-05-06 14:09 35.47132 139.97681 6078 ft 300 kts 35°
2026-05-06 14:09 35.48995 139.98771 6695 ft 298 kts
2026-05-06 14:10 35.51032 139.98881 7272 ft 292 kts 352°
2026-05-06 14:10 35.53080 139.98696 7842 ft 297 kts 351°
2026-05-06 14:10 35.55148 139.98495 8479 ft 299 kts 351°
2026-05-06 14:10 35.57224 139.98294 9162 ft 300 kts 351°
2026-05-06 14:11 35.59321 139.98097 9797 ft 303 kts 351°
2026-05-06 14:11 35.61418 139.97904 10335 ft 309 kts 351°
2026-05-06 14:11 35.63631 139.97703 10516 ft 329 kts 351°
2026-05-06 14:11 35.65986 139.97495 10679 ft 349 kts 352°
2026-05-06 14:12 35.68489 139.97278 10833 ft 370 kts 352°
2026-05-06 14:12 35.71110 139.97047 11202 ft 382 kts 351°
2026-05-06 14:12 35.73751 139.96545 11737 ft 387 kts 343°
2026-05-06 14:12 35.76348 139.95642 12378 ft 387 kts 336°
2026-05-06 14:13 35.78867 139.94458 13085 ft 389 kts 335°
2026-05-06 14:13 35.81401 139.93232 13777 ft 392 kts 335°
2026-05-06 14:13 35.83951 139.92004 14394 ft 395 kts 335°
2026-05-06 14:13 35.86547 139.90836 14999 ft 400 kts 340°
2026-05-06 14:14 35.89298 139.90163 15583 ft 408 kts 351°
2026-05-06 14:14 35.92161 139.90066 16214 ft 414 kts 359°
2026-05-06 14:14 35.95005 139.90441 16807 ft 419 kts
2026-05-06 14:14 35.97908 139.90976 17187 ft 424 kts
2026-05-06 14:15 36.00829 139.91520 17137 ft 425 kts
2026-05-06 14:15 36.03753 139.92054 17145 ft 423 kts
2026-05-06 14:15 36.06659 139.92575 17137 ft 420 kts
2026-05-06 14:15 36.09472 139.93678 17335 ft 433 kts 26°
2026-05-06 14:16 36.11899 139.95940 17859 ft 442 kts 45°
2026-05-06 14:16 36.13685 139.99050 18455 ft 447 kts 64°
2026-05-06 14:16 36.14641 140.02724 18872 ft 453 kts 83°
2026-05-06 14:16 36.14600 140.06603 19230 ft 456 kts 103°
2026-05-06 14:17 36.13596 140.10268 19612 ft 455 kts 122°
2026-05-06 14:17 36.11832 140.13506 19982 ft 454 kts 130°
2026-05-06 14:17 36.09940 140.16655 20339 ft 460 kts 131°
2026-05-06 14:17 36.08013 140.19840 20790 ft 465 kts 131°
2026-05-06 14:18 36.06077 140.23062 21233 ft 469 kts 132°
2026-05-06 14:18 36.04145 140.26310 21663 ft 474 kts 132°
2026-05-06 14:18 36.02193 140.29619 22061 ft 479 kts 132°
2026-05-06 14:18 36.00227 140.32970 22472 ft 483 kts 132°
2026-05-06 14:19 35.98251 140.36347 22877 ft 487 kts 133°
2026-05-06 14:19 35.96261 140.39748 23286 ft 491 kts 133°
2026-05-06 14:19 35.94277 140.43135 23682 ft 494 kts 134°
2026-05-06 14:19 35.92228 140.46629 24047 ft 497 kts 134°
2026-05-06 14:20 35.90201 140.50082 24470 ft 497 kts 134°
2026-05-06 14:20 35.88195 140.53496 24887 ft 498 kts 134°
2026-05-06 14:20 35.86161 140.56952 25251 ft 500 kts 134°
2026-05-06 14:20 35.84100 140.60446 25572 ft 503 kts 134°
2026-05-06 14:21 35.82037 140.63940 25918 ft 505 kts 134°
2026-05-06 14:21 35.79964 140.67452 26266 ft 507 kts 134°
2026-05-06 14:21 35.77878 140.70984 26586 ft 510 kts 134°
2026-05-06 14:21 35.75779 140.74530 26888 ft 513 kts 134°
2026-05-06 14:22 35.73774 140.78201 27170 ft 522 kts 128°
2026-05-06 14:22 35.72584 140.80798 27365 ft 528 kts 125°
2026-05-06 14:22 35.70997 140.84930 27651 ft 538 kts 118°
2026-05-06 14:22 35.69285 140.90706 28010 ft 545 kts 116°
2026-05-06 14:23 35.68029 140.95130 28263 ft 548 kts 116°
2026-05-06 14:23 35.67180 140.98121 28437 ft 550 kts 116°
2026-05-06 14:23 35.65922 141.02516 28696 ft 552 kts 116°
2026-05-06 14:23 35.64614 141.07021 28969 ft 554 kts 116°
2026-05-06 14:24 35.63304 141.11481 29234 ft 555 kts 117°
2026-05-06 14:24 35.61999 141.15887 29486 ft 557 kts 117°
2026-05-06 14:24 35.60665 141.20372 29763 ft 558 kts 117°
2026-05-06 14:24 35.59333 141.24847 30126 ft 557 kts 117°
2026-05-06 14:25 35.58006 141.29303 30473 ft 555 kts 117°
2026-05-06 14:25 35.56681 141.33752 30830 ft 553 kts 117°
2026-05-06 14:25 35.55361 141.38176 31098 ft 553 kts 117°
2026-05-06 14:25 35.54029 141.42625 31121 ft 556 kts 117°
2026-05-06 14:26 35.51373 141.51499 31136 ft 549 kts 116°
2026-05-06 14:26 35.48744 141.60249 31155 ft 544 kts 117°
2026-05-06 14:27 35.46155 141.68917 31151 ft 545 kts 114°
2026-05-06 14:27 35.44448 141.78059 31169 ft 555 kts 103°
2026-05-06 14:28 35.43970 141.87564 31165 ft 561 kts 94°
2026-05-06 14:28 35.43991 141.97153 31164 ft 562 kts 93°
2026-05-06 14:29 35.43979 142.06752 31163 ft 562 kts 94°
2026-05-06 14:29 35.43904 142.16341 31160 ft 563 kts 94°
2026-05-06 14:30 35.43807 142.25928 31167 ft 563 kts 94°
2026-05-06 14:30 35.43708 142.35452 31166 ft 562 kts 94°
2026-05-06 14:31 35.43606 142.45070 31166 ft 562 kts 94°
2026-05-06 14:31 35.43497 142.54654 31166 ft 561 kts 94°
2026-05-06 14:32 35.43378 142.64231 31167 ft 561 kts 94°
2026-05-06 14:32 35.43252 142.73735 31172 ft 560 kts 94°
2026-05-06 14:33 35.43119 142.83287 31176 ft 560 kts 94°
2026-05-06 14:33 35.42978 142.92829 31175 ft 560 kts 94°
2026-05-06 14:34 35.42830 143.02385 31179 ft 559 kts 94°
2026-05-06 14:34 35.42675 143.11925 31182 ft 559 kts 94°
2026-05-06 14:35 35.42514 143.21448 31183 ft 558 kts 94°
2026-05-06 14:35 35.42752 143.26127 31166 ft 559 kts 79°
2026-05-06 14:35 35.43970 143.30650 31184 ft 559 kts 61°
2026-05-06 14:36 35.46053 143.34657 31200 ft 557 kts 48°
2026-05-06 14:36 35.48747 143.38071 31182 ft 555 kts 34°
2026-05-06 14:36 35.55281 143.42908 31194 ft 550 kts 23°
2026-05-06 14:37 35.62013 143.47489 31192 ft 555 kts 24°
2026-05-06 14:37 35.68643 143.52228 31168 ft 548 kts 25°
2026-05-06 14:38 35.75226 143.57007 31195 ft 550 kts 24°
2026-05-06 14:38 35.81836 143.61791 31188 ft 552 kts 24°
2026-05-06 14:39 35.88436 143.66593 31173 ft 554 kts 24°
2026-05-06 14:39 35.95080 143.71446 31181 ft 555 kts 24°
2026-05-06 14:40 36.01738 143.76317 31170 ft 556 kts 24°
2026-05-06 14:40 36.08412 143.81207 31172 ft 557 kts 24°
2026-05-06 14:41 36.15048 143.86079 31183 ft 558 kts 24°
2026-05-06 14:41 36.21856 143.90595 31171 ft 550 kts 15°
2026-05-06 14:42 36.29027 143.93650 31183 ft 539 kts
2026-05-06 14:42 36.36328 143.95433 31186 ft 533 kts
2026-05-06 14:43 36.43660 143.97048 31179 ft 535 kts
2026-05-06 14:43 36.50963 143.98701 31181 ft 537 kts
2026-05-06 14:44 36.58329 144.00419 31180 ft 538 kts
2026-05-06 14:45 36.69379 144.03024 31172 ft 539 kts
2026-05-06 14:45 36.76751 144.04762 31175 ft 539 kts
2026-05-06 14:46 36.84130 144.06502 31176 ft 539 kts
2026-05-06 14:46 36.91505 144.08244 31168 ft 539 kts 360°
2026-05-06 14:47 36.98837 144.09979 31166 ft 539 kts 360°
2026-05-06 14:47 37.06212 144.11728 31161 ft 539 kts 360°
2026-05-06 14:48 37.13579 144.13479 31163 ft 538 kts 360°
2026-05-06 14:48 37.20944 144.15232 31166 ft 538 kts 360°
2026-05-06 14:49 37.28297 144.16986 31166 ft 538 kts 360°
2026-05-06 14:49 37.35656 144.18745 31160 ft 538 kts 360°
2026-05-06 14:50 37.43013 144.20507 31157 ft 538 kts 360°
2026-05-06 14:50 37.50343 144.22265 31153 ft 539 kts
2026-05-06 14:51 37.57727 144.24040 31154 ft 540 kts
2026-05-06 14:51 37.65122 144.25821 31156 ft 541 kts
2026-05-06 14:52 37.72538 144.27611 31157 ft 543 kts
2026-05-06 14:52 37.79940 144.29402 31163 ft 546 kts
2026-05-06 14:53 37.87417 144.31214 31156 ft 548 kts
2026-05-06 14:53 37.94925 144.33040 31153 ft 549 kts
2026-05-06 14:54 38.02443 144.34873 31147 ft 550 kts
2026-05-06 14:54 38.09983 144.36713 31151 ft 550 kts
2026-05-06 14:55 38.17486 144.38549 31149 ft 549 kts
2026-05-06 14:55 38.24930 144.40374 31145 ft 547 kts
2026-05-06 14:56 38.32390 144.42206 31137 ft 545 kts 360°
2026-05-06 14:56 38.39836 144.44038 31140 ft 543 kts 360°
2026-05-06 14:57 38.47254 144.45866 31138 ft 541 kts 360°
2026-05-06 14:57 38.54644 144.47692 31140 ft 540 kts
2026-05-06 14:58 38.62010 144.49516 31141 ft 537 kts
2026-05-06 14:58 38.65622 144.50736 31127 ft 549 kts 11°
2026-05-06 14:58 38.69154 144.52700 31140 ft 559 kts 20°
2026-05-06 14:59 38.75567 144.58493 31138 ft 568 kts 36°
2026-05-06 14:59 38.81397 144.65345 31138 ft 568 kts 37°
2026-05-06 15:00 38.87168 144.72174 31137 ft 566 kts 37°
2026-05-06 15:00 38.93003 144.78948 31135 ft 565 kts 36°
2026-05-06 15:01 38.98857 144.85680 31137 ft 564 kts 36°
2026-05-06 15:01 39.04695 144.92401 31138 ft 562 kts 36°
2026-05-06 15:02 39.10517 144.99131 31136 ft 561 kts 36°
2026-05-06 15:02 39.16280 145.05816 31136 ft 559 kts 37°
2026-05-06 15:03 39.22043 145.12519 31127 ft 556 kts 37°
2026-05-06 15:03 39.27781 145.19207 31127 ft 554 kts 37°
2026-05-06 15:04 39.33455 145.25835 31129 ft 551 kts 37°
2026-05-06 15:04 39.39131 145.32480 31128 ft 549 kts 37°
2026-05-06 15:05 39.44781 145.39108 31126 ft 548 kts 37°
2026-05-06 15:05 39.50419 145.45738 31126 ft 546 kts 37°
2026-05-06 15:06 39.56035 145.52357 31133 ft 546 kts 37°
2026-05-06 15:06 39.61653 145.58994 31132 ft 545 kts 38°
2026-05-06 15:07 39.67248 145.65619 31129 ft 544 kts 38°
2026-05-06 15:07 39.72797 145.72205 31127 ft 542 kts 38°
2026-05-06 15:08 39.78355 145.78818 31124 ft 540 kts 38°
2026-05-06 15:08 39.83886 145.85413 31124 ft 538 kts 38°
2026-05-06 15:09 39.89394 145.91995 31117 ft 536 kts 38°
2026-05-06 15:09 39.93959 145.97462 31128 ft 534 kts 38°
2026-05-06 15:10 40.00296 146.05067 31114 ft 532 kts 38°
2026-05-06 15:10 40.04819 146.10509 31121 ft 530 kts 38°
2026-05-06 15:11 40.10229 146.17029 31121 ft 529 kts 39°
2026-05-06 15:11 40.15635 146.23559 31119 ft 529 kts 39°
2026-05-06 15:12 40.21048 146.30113 31127 ft 530 kts 39°
2026-05-06 15:12 40.26427 146.36641 31125 ft 530 kts 39°
2026-05-06 15:13 40.31851 146.43241 31127 ft 530 kts 39°
2026-05-06 15:13 40.37249 146.49822 31130 ft 529 kts 39°
2026-05-06 15:14 40.42590 146.56350 31121 ft 527 kts 39°
2026-05-06 15:14 40.47955 146.62921 31118 ft 525 kts 39°
2026-05-06 15:15 40.53297 146.69481 31115 ft 523 kts 39°
2026-05-06 15:15 40.58574 146.75973 31114 ft 522 kts 39°
2026-05-06 15:16 40.63879 146.82515 31116 ft 521 kts 39°
2026-05-06 15:16 40.69167 146.89051 31116 ft 521 kts 40°
2026-05-06 15:17 40.74450 146.95596 31117 ft 521 kts 40°
2026-05-06 15:17 40.79723 147.02144 31114 ft 520 kts 40°
2026-05-06 15:18 40.84951 147.08651 31116 ft 520 kts 40°
2026-05-06 15:18 40.90204 147.15204 31111 ft 519 kts 40°
2026-05-06 15:19 40.95455 147.21769 31109 ft 518 kts 40°
2026-05-06 15:19 41.00683 147.28321 31110 ft 517 kts 40°
2026-05-06 15:20 41.05899 147.34872 31107 ft 516 kts 40°
2026-05-06 15:20 41.11077 147.41391 31109 ft 515 kts 40°
2026-05-06 15:21 41.16268 147.47941 31106 ft 514 kts 40°
2026-05-06 15:21 41.21440 147.54481 31105 ft 513 kts 40°
2026-05-06 15:22 41.26603 147.61027 31102 ft 512 kts 40°
2026-05-06 15:22 41.31753 147.67570 31102 ft 511 kts 40°
2026-05-06 15:23 41.36894 147.74117 31103 ft 511 kts 41°
2026-05-06 15:23 41.42025 147.80666 31104 ft 511 kts 41°
2026-05-06 15:24 41.47150 147.87223 31101 ft 510 kts 41°
2026-05-06 15:24 41.52245 147.93756 31101 ft 510 kts 41°
2026-05-06 15:25 41.57354 148.00324 31094 ft 509 kts 41°
2026-05-06 15:25 41.62460 148.06902 31094 ft 509 kts 41°
2026-05-06 15:26 41.67548 148.13473 31093 ft 509 kts 41°
2026-05-06 15:26 41.72637 148.20059 31092 ft 508 kts 41°
2026-05-06 15:27 41.77696 148.26663 31093 ft 508 kts 42°
2026-05-06 15:27 41.82699 148.33290 31091 ft 509 kts 42°
2026-05-06 15:28 41.87730 148.39977 31085 ft 509 kts 42°
2026-05-06 15:28 41.92757 148.46663 31084 ft 509 kts 42°
2026-05-06 15:29 41.97788 148.53362 31083 ft 509 kts 42°
2026-05-06 15:29 42.02820 148.60078 31079 ft 509 kts 42°
2026-05-06 15:30 42.07843 148.66797 31077 ft 509 kts 42°
2026-05-06 15:30 42.12869 148.73538 31073 ft 510 kts 42°
2026-05-06 15:31 42.17890 148.80287 31077 ft 510 kts 42°
2026-05-06 15:31 42.22914 148.87056 31064 ft 511 kts 42°
2026-05-06 15:32 42.30421 148.97203 31059 ft 511 kts 42°
2026-05-06 15:32 42.35452 149.04023 31065 ft 512 kts 42°
2026-05-06 15:33 42.40486 149.10863 31058 ft 512 kts 42°
2026-05-06 15:33 42.45513 149.17709 31063 ft 512 kts 42°
2026-05-06 15:34 42.50508 149.24530 31052 ft 513 kts 42°
2026-05-06 15:34 42.55534 149.31408 31059 ft 513 kts 43°
2026-05-06 15:35 42.60557 149.38300 31059 ft 513 kts 43°
2026-05-06 15:35 42.65578 149.45206 31051 ft 514 kts 43°
2026-05-06 15:36 42.70602 149.52133 31051 ft 514 kts 43°
2026-05-06 15:36 42.75627 149.59077 31050 ft 515 kts 43°
2026-05-06 15:37 42.80616 149.65990 31052 ft 515 kts 43°
2026-05-06 15:37 42.85640 149.72968 31046 ft 516 kts 43°
2026-05-06 15:38 42.90664 149.79963 31047 ft 516 kts 43°
2026-05-06 15:38 42.95692 149.86980 31044 ft 516 kts 43°
2026-05-06 15:39 43.00718 149.94014 31040 ft 517 kts 43°
2026-05-06 15:39 43.05731 150.01046 31037 ft 517 kts 43°
2026-05-06 15:40 43.10746 150.08099 31038 ft 516 kts 43°
2026-05-06 15:40 43.15753 150.15158 31036 ft 516 kts 43°
2026-05-06 15:41 43.20728 150.22189 31034 ft 516 kts 43°
2026-05-06 15:41 43.25725 150.29269 31037 ft 516 kts 43°
2026-05-06 15:42 43.30711 150.36352 31032 ft 516 kts 43°
2026-05-06 15:42 43.35693 150.43446 31026 ft 516 kts 43°
2026-05-06 15:43 43.40676 150.50560 31029 ft 516 kts 43°
2026-05-06 15:43 43.45648 150.57676 31020 ft 516 kts 43°
2026-05-06 15:44 43.50591 150.64767 31021 ft 516 kts 43°
2026-05-06 15:44 43.55565 150.71922 31011 ft 517 kts 43°
2026-05-06 15:45 43.60541 150.79098 31015 ft 517 kts 43°
2026-05-06 15:45 43.65513 150.86287 31015 ft 518 kts 43°
2026-05-06 15:46 43.70496 150.93511 31015 ft 519 kts 43°
2026-05-06 15:46 43.75448 151.00707 31012 ft 519 kts 43°
2026-05-06 15:47 43.80425 151.07959 31006 ft 520 kts 43°
2026-05-06 15:47 43.85411 151.15244 31005 ft 521 kts 43°
2026-05-06 15:48 43.90395 151.22544 31000 ft 521 kts 43°
2026-05-06 15:48 43.95374 151.29855 30999 ft 522 kts 43°
2026-05-06 15:49 44.00357 151.37191 31001 ft 522 kts 43°
2026-05-06 15:49 44.05336 151.44541 30995 ft 522 kts 43°
2026-05-06 15:50 44.10319 151.51917 30993 ft 523 kts 43°
2026-05-06 15:50 44.15299 151.59307 30991 ft 523 kts 43°
2026-05-06 15:51 44.20275 151.66711 30991 ft 524 kts 43°
2026-05-06 15:51 44.25256 151.74142 30987 ft 524 kts 43°
2026-05-06 15:52 44.30199 151.81536 30986 ft 525 kts 43°
2026-05-06 15:52 44.35182 151.89009 30986 ft 525 kts 43°
2026-05-06 15:53 44.40164 151.96502 30980 ft 526 kts 43°
2026-05-06 15:53 44.45141 152.04006 30978 ft 526 kts 43°
2026-05-06 15:54 44.50094 152.11495 30979 ft 527 kts 43°
2026-05-06 15:54 44.55076 152.19048 30975 ft 527 kts 43°
2026-05-06 15:55 44.60055 152.26617 30977 ft 527 kts 43°
2026-05-06 15:55 44.65022 152.34189 30973 ft 528 kts 43°
2026-05-06 15:56 44.69970 152.41752 30969 ft 528 kts 43°
2026-05-06 15:56 44.74940 152.49368 30972 ft 528 kts 43°
2026-05-06 15:57 44.79080 152.55730 30970 ft 529 kts 43°
2026-05-06 15:57 44.84051 152.63387 30969 ft 529 kts 43°
2026-05-06 15:58 44.89016 152.71056 30966 ft 529 kts 43°
2026-05-06 15:58 44.93983 152.78748 30966 ft 530 kts 43°
2026-05-06 15:59 44.98942 152.86451 30966 ft 530 kts 43°
2026-05-06 15:59 45.03867 152.94122 30964 ft 530 kts 43°
2026-05-06 16:00 45.08823 153.01862 30955 ft 531 kts 43°
2026-05-06 16:00 45.13776 153.09622 30970 ft 531 kts 43°
2026-05-06 16:01 45.18743 153.17421 30969 ft 532 kts 43°
2026-05-06 16:01 45.23695 153.25220 30965 ft 532 kts 43°
2026-05-06 16:02 45.28612 153.32988 30972 ft 532 kts 43°
2026-05-06 16:02 45.33561 153.40828 30966 ft 532 kts 43°
2026-05-06 16:03 45.38506 153.48681 30967 ft 532 kts 42°
2026-05-06 16:03 45.43440 153.56542 30962 ft 532 kts 42°
2026-05-06 16:04 45.48382 153.64438 30965 ft 532 kts 42°
2026-05-06 16:04 45.53271 153.72269 30958 ft 532 kts 42°
2026-05-06 16:05 45.58170 153.80200 30966 ft 532 kts 43°
2026-05-06 16:05 45.63048 153.88168 30957 ft 532 kts 43°
2026-05-06 16:06 45.67916 153.96141 30966 ft 532 kts 43°
2026-05-06 16:06 45.72789 154.04136 30957 ft 533 kts 43°
2026-05-06 16:07 45.77633 154.12100 30967 ft 533 kts 43°
2026-05-06 16:07 45.82501 154.20127 30955 ft 533 kts 42°
2026-05-06 16:08 45.87373 154.28185 30962 ft 534 kts 42°
2026-05-06 16:08 45.92235 154.36250 30957 ft 534 kts 42°
2026-05-06 16:09 45.97061 154.44278 30962 ft 534 kts 42°
2026-05-06 16:09 46.01923 154.52392 30957 ft 535 kts 42°
2026-05-06 16:10 46.06779 154.60517 30964 ft 535 kts 42°
2026-05-06 16:10 46.11641 154.68679 30950 ft 535 kts 42°
2026-05-06 16:11 46.16490 154.76841 30960 ft 536 kts 42°
2026-05-06 16:11 46.21307 154.84973 30947 ft 536 kts 42°
2026-05-06 16:12 46.26146 154.93169 30952 ft 536 kts 42°
2026-05-06 16:12 46.30977 155.01374 30947 ft 536 kts 42°
2026-05-06 16:13 46.35806 155.09600 30952 ft 536 kts 42°
2026-05-06 16:13 46.40635 155.17850 30944 ft 536 kts 42°
2026-05-06 16:14 46.45452 155.26104 30944 ft 536 kts 42°
2026-05-06 16:14 46.50232 155.34321 30937 ft 536 kts 42°
2026-05-06 16:15 46.55041 155.42613 30942 ft 536 kts 42°
2026-05-06 16:15 46.59839 155.50910 30923 ft 536 kts 42°
2026-05-06 16:16 46.64639 155.59236 30941 ft 536 kts 42°
2026-05-06 16:16 46.69435 155.67578 30933 ft 537 kts 42°
2026-05-06 16:17 46.74220 155.75927 30935 ft 537 kts 42°
2026-05-06 16:17 46.78980 155.84260 30928 ft 537 kts 42°
2026-05-06 16:18 46.83755 155.92643 30932 ft 537 kts 42°
2026-05-06 16:18 46.88537 156.01064 30927 ft 537 kts 42°
2026-05-06 16:19 46.93305 156.09486 30929 ft 538 kts 42°
2026-05-06 16:19 46.98077 156.17943 30923 ft 538 kts 42°
2026-05-06 16:20 47.02815 156.26363 30930 ft 538 kts 42°
2026-05-06 16:20 47.07574 156.34849 30914 ft 539 kts 42°
2026-05-06 16:21 47.12338 156.43370 30920 ft 539 kts 42°
2026-05-06 16:21 47.14721 156.47638 31039 ft 541 kts 43°
2026-05-06 16:21 47.17106 156.51920 31349 ft 540 kts 43°
2026-05-06 16:22 47.19451 156.56139 31712 ft 538 kts 43°
2026-05-06 16:22 47.21813 156.60398 32062 ft 537 kts 43°
2026-05-06 16:22 47.24177 156.64664 32379 ft 537 kts 43°
2026-05-06 16:22 47.26541 156.68934 32646 ft 537 kts 43°
2026-05-06 16:23 47.28900 156.73200 32831 ft 539 kts 43°
2026-05-06 16:23 47.31276 156.77501 32888 ft 542 kts 43°
2026-05-06 16:23 47.36025 156.86126 32890 ft 540 kts 43°
2026-05-06 16:24 47.40730 156.94712 32910 ft 536 kts 43°
2026-05-06 16:24 47.45424 157.03293 32898 ft 536 kts 43°
2026-05-06 16:25 47.50106 157.11876 32914 ft 537 kts 43°
2026-05-06 16:25 47.54772 157.20455 32896 ft 538 kts 44°
2026-05-06 16:26 47.59468 157.29121 32905 ft 540 kts 44°
2026-05-06 16:26 47.64156 157.37801 32894 ft 541 kts 44°
2026-05-06 16:27 47.68889 157.46592 32894 ft 542 kts 44°
2026-05-06 16:27 47.73566 157.55308 32886 ft 543 kts 44°
2026-05-06 16:28 47.78266 157.64095 32890 ft 543 kts 44°
2026-05-06 16:28 47.82970 157.72919 32875 ft 543 kts 44°
2026-05-06 16:29 47.87662 157.81747 32881 ft 543 kts 45°
2026-05-06 16:29 47.92344 157.90587 32877 ft 543 kts 45°
2026-05-06 16:30 47.96224 157.97933 32876 ft 543 kts 45°
2026-05-06 16:30 48.01678 158.08291 32872 ft 543 kts 45°
2026-05-06 16:31 48.06312 158.17126 32872 ft 543 kts 45°
2026-05-06 16:31 48.08634 158.21566 32598 ft 543 kts 43°
2026-05-06 16:31 48.10968 158.26034 32741 ft 545 kts 42°
2026-05-06 16:32 48.15685 158.35064 32863 ft 555 kts 43°
2026-05-06 16:32 48.20451 158.44233 32866 ft 558 kts 43°
2026-05-06 16:33 48.25145 158.53329 32840 ft 550 kts 43°
2026-05-06 16:34 48.32159 158.66944 32852 ft 549 kts 43°
2026-05-06 16:34 48.36829 158.76031 32846 ft 550 kts 43°
2026-05-06 16:35 48.41479 158.85115 32843 ft 551 kts 43°
2026-05-06 16:35 48.46149 158.94275 32851 ft 552 kts 43°
2026-05-06 16:36 48.50818 159.03464 32848 ft 552 kts 43°
2026-05-06 16:36 48.55491 159.12694 32841 ft 552 kts 43°
2026-05-06 16:37 48.60149 159.21925 32835 ft 552 kts 43°
2026-05-06 16:37 48.64804 159.31183 32830 ft 552 kts 44°
2026-05-06 16:38 48.69418 159.40389 32819 ft 551 kts 44°
2026-05-06 16:38 48.74039 159.49642 32817 ft 550 kts 44°
2026-05-06 16:39 48.78649 159.58904 32817 ft 550 kts 44°
2026-05-06 16:39 48.83258 159.68194 32814 ft 549 kts 44°
2026-05-06 16:40 48.87846 159.77476 32812 ft 549 kts 44°
2026-05-06 16:40 48.92388 159.86696 32804 ft 548 kts 44°
2026-05-06 16:41 48.96964 159.96016 32802 ft 548 kts 45°
2026-05-06 16:41 49.01513 160.05371 32802 ft 550 kts 46°
2026-05-06 16:42 49.05209 160.13260 32801 ft 551 kts 46°
2026-05-06 16:42 49.09626 160.22815 32799 ft 551 kts 47°
2026-05-06 16:43 49.14775 160.33942 32793 ft 551 kts 47°
2026-05-06 16:43 49.18483 160.41948 32788 ft 551 kts 47°
2026-05-06 16:44 49.22880 160.51469 32783 ft 551 kts 47°
2026-05-06 16:44 49.27303 160.61086 32774 ft 551 kts 47°
2026-05-06 16:45 49.32421 160.72259 32765 ft 551 kts 47°
2026-05-06 16:45 49.36100 160.80321 32772 ft 550 kts 47°
2026-05-06 16:46 49.40488 160.89966 32769 ft 550 kts 48°
2026-05-06 16:46 49.44831 160.99548 32766 ft 550 kts 48°
2026-05-06 16:47 49.49198 161.09217 32765 ft 550 kts 48°
2026-05-06 16:47 49.53547 161.18900 32759 ft 550 kts 48°
2026-05-06 16:48 49.57868 161.28622 32755 ft 549 kts 49°
2026-05-06 16:48 49.62145 161.38292 32746 ft 549 kts 49°
2026-05-06 16:49 49.66443 161.48034 32741 ft 548 kts 49°
2026-05-06 16:49 49.70737 161.57797 32742 ft 548 kts 49°
2026-05-06 16:50 49.75016 161.67560 32724 ft 548 kts 49°
2026-05-06 16:50 49.79261 161.77283 32730 ft 548 kts 49°
2026-05-06 16:51 49.83516 161.87064 32730 ft 547 kts 49°
2026-05-06 16:51 49.87770 161.96878 32728 ft 547 kts 49°
2026-05-06 16:52 49.92004 162.06684 32721 ft 547 kts 49°
2026-05-06 16:52 49.96226 162.16498 32714 ft 546 kts 50°
2026-05-06 16:53 50.00411 162.26264 32710 ft 545 kts 50°
2026-05-06 16:53 50.04607 162.36089 32703 ft 544 kts 50°
2026-05-06 16:54 50.08785 162.45911 32698 ft 543 kts 50°
2026-05-06 16:54 50.12931 162.55692 32699 ft 542 kts 50°
2026-05-06 16:55 50.17084 162.65526 32694 ft 541 kts 50°
2026-05-06 16:55 50.21218 162.75351 32693 ft 541 kts 50°
2026-05-06 16:56 50.25339 162.85182 32695 ft 541 kts 51°
2026-05-06 16:56 50.29452 162.95031 32692 ft 541 kts 51°
2026-05-06 16:57 50.33530 163.04835 32685 ft 541 kts 51°
2026-05-06 16:57 50.37632 163.14730 32689 ft 542 kts 51°
2026-05-06 16:58 50.41730 163.24657 32669 ft 542 kts 51°
2026-05-06 16:58 50.45827 163.34616 32668 ft 543 kts 52°
2026-05-06 16:59 50.49923 163.44612 32668 ft 543 kts 52°
2026-05-06 16:59 50.53999 163.54599 32663 ft 543 kts 52°
2026-05-06 17:00 50.58067 163.64604 32659 ft 543 kts 52°
2026-05-06 17:00 50.62105 163.74574 32653 ft 542 kts 52°
2026-05-06 17:01 50.66145 163.84587 32651 ft 540 kts 52°
2026-05-06 17:01 50.70165 163.94587 32651 ft 539 kts 52°
2026-05-06 17:02 50.74138 164.04510 32638 ft 537 kts 53°
2026-05-06 17:02 50.78114 164.14477 32636 ft 535 kts 53°
2026-05-06 17:03 50.82074 164.24443 32636 ft 534 kts 53°
2026-05-06 17:03 50.86013 164.34392 32639 ft 533 kts 53°
2026-05-06 17:04 50.89946 164.44363 32629 ft 532 kts 53°
2026-05-06 17:04 50.93687 164.54449 32630 ft 533 kts 56°
2026-05-06 17:05 50.97301 164.64729 32628 ft 533 kts 57°
2026-05-06 17:05 51.00908 164.75007 32620 ft 532 kts 57°
2026-05-06 17:06 51.04536 164.85269 32615 ft 531 kts 57°
2026-05-06 17:06 51.08162 164.95517 32613 ft 531 kts 57°
2026-05-06 17:07 51.11749 165.05688 32597 ft 530 kts 57°
2026-05-06 17:07 51.15346 165.15939 32606 ft 530 kts 57°
2026-05-06 17:08 51.18925 165.26183 32605 ft 529 kts 57°
2026-05-06 17:08 51.22496 165.36449 32607 ft 528 kts 58°
2026-05-06 17:09 51.26049 165.46701 32598 ft 528 kts 58°
2026-05-06 17:09 51.29591 165.56967 32594 ft 527 kts 58°
2026-05-06 17:10 51.33118 165.67229 32595 ft 526 kts 58°
2026-05-06 17:10 51.36610 165.77432 32590 ft 525 kts 58°
2026-05-06 17:11 51.40109 165.87694 32593 ft 524 kts 59°
2026-05-06 17:11 51.43592 165.97952 32587 ft 523 kts 59°
2026-05-06 17:12 51.47038 166.08144 32589 ft 522 kts 59°
2026-05-06 17:12 51.50497 166.18415 32583 ft 522 kts 59°
2026-05-06 17:13 51.53942 166.28689 32580 ft 521 kts 59°
2026-05-06 17:13 51.57374 166.38963 32578 ft 521 kts 59°
2026-05-06 17:14 51.60772 166.49180 32579 ft 521 kts 60°
2026-05-06 17:14 51.64181 166.59471 32575 ft 520 kts 60°
2026-05-06 17:15 51.67576 166.69764 32574 ft 520 kts 60°
2026-05-06 17:15 51.70961 166.80067 32572 ft 520 kts 60°
2026-05-06 17:16 51.74338 166.90390 32569 ft 520 kts 60°
2026-05-06 17:16 51.77703 167.00718 32568 ft 519 kts 60°
2026-05-06 17:17 51.81036 167.10992 32564 ft 519 kts 60°
2026-05-06 17:17 51.84379 167.21342 32564 ft 518 kts 61°
2026-05-06 17:18 51.87710 167.31695 32561 ft 518 kts 61°
2026-05-06 17:18 51.91024 167.42037 32564 ft 517 kts 61°
2026-05-06 17:19 51.94305 167.52324 32561 ft 517 kts 61°
2026-05-06 17:19 51.97596 167.62684 32562 ft 516 kts 61°
2026-05-06 17:20 52.00877 167.73055 32558 ft 516 kts 62°
2026-05-06 17:20 52.04147 167.83437 32556 ft 516 kts 62°
2026-05-06 17:21 52.07412 167.93845 32562 ft 516 kts 62°
2026-05-06 17:21 52.10648 168.04205 32560 ft 516 kts 62°
2026-05-06 17:22 52.13886 168.14620 32556 ft 516 kts 62°
2026-05-06 17:22 52.17114 168.25045 32556 ft 515 kts 62°
2026-05-06 17:23 52.20336 168.35492 32556 ft 515 kts 62°
2026-05-06 17:23 52.23545 168.45945 32558 ft 515 kts 62°
2026-05-06 17:24 52.26748 168.56424 32554 ft 515 kts 62°
2026-05-06 17:24 52.29917 168.66836 32552 ft 515 kts 63°
2026-05-06 17:25 52.33097 168.77328 32554 ft 515 kts 63°
2026-05-06 17:25 52.36262 168.87821 32556 ft 514 kts 63°
2026-05-06 17:26 52.39422 168.98341 32550 ft 514 kts 63°
2026-05-06 17:26 52.42573 169.08876 32549 ft 514 kts 63°
2026-05-06 17:27 52.45703 169.19385 32553 ft 513 kts 63°
2026-05-06 17:27 52.48817 169.29890 32553 ft 513 kts 64°
2026-05-06 17:28 52.51929 169.40433 32553 ft 513 kts 64°
2026-05-06 17:28 52.55033 169.50998 32552 ft 513 kts 64°
2026-05-06 17:29 52.58106 169.61503 32550 ft 512 kts 64°
2026-05-06 17:29 52.61182 169.72066 32552 ft 511 kts 64°
2026-05-06 17:30 52.63727 169.80839 32556 ft 511 kts 64°
2026-05-06 17:30 52.66780 169.91405 32555 ft 510 kts 65°
2026-05-06 17:31 52.69821 170.01979 32556 ft 509 kts 65°
2026-05-06 17:31 52.72830 170.12489 32556 ft 509 kts 65°
2026-05-06 17:32 52.75849 170.23081 32555 ft 508 kts 65°
2026-05-06 17:32 52.78851 170.33663 32556 ft 508 kts 65°
2026-05-06 17:33 52.81827 170.44196 32561 ft 508 kts 65°
2026-05-06 17:33 52.84808 170.54800 32564 ft 508 kts 66°
2026-05-06 17:34 52.87774 170.65395 32564 ft 507 kts 66°
2026-05-06 17:34 52.90732 170.76011 32565 ft 506 kts 66°
2026-05-06 17:35 52.93671 170.86607 32564 ft 506 kts 66°
2026-05-06 17:35 52.96581 170.97146 32570 ft 505 kts 66°
2026-05-06 17:36 53.00957 171.13086 32567 ft 505 kts 67°
2026-05-06 17:36 53.03856 171.23711 32570 ft 505 kts 67°
2026-05-06 17:37 53.06750 171.34362 32575 ft 505 kts 67°
2026-05-06 17:37 53.09634 171.45021 32570 ft 504 kts 67°
2026-05-06 17:38 53.12483 171.55608 32573 ft 503 kts 68°
2026-05-06 17:38 53.15337 171.66259 32572 ft 502 kts 68°
2026-05-06 17:39 53.18173 171.76893 32578 ft 501 kts 68°
2026-05-06 17:39 53.20996 171.87525 32576 ft 500 kts 68°
2026-05-06 17:40 53.23787 171.98090 32584 ft 499 kts 68°
2026-05-06 17:40 53.26573 172.08685 32585 ft 498 kts 68°
2026-05-06 17:41 53.29350 172.19291 32591 ft 498 kts 68°
2026-05-06 17:41 53.32114 172.29902 32590 ft 498 kts 68°
2026-05-06 17:42 53.34871 172.40531 32593 ft 498 kts 68°
2026-05-06 17:42 53.37599 172.51103 32593 ft 498 kts 68°
2026-05-06 17:43 53.40337 172.61761 32600 ft 498 kts 68°
2026-05-06 17:43 53.43066 172.72434 32595 ft 497 kts 68°
2026-05-06 17:44 53.45780 172.83102 32599 ft 497 kts 69°
2026-05-06 17:44 53.48488 172.93795 32599 ft 497 kts 69°
2026-05-06 17:45 53.51181 173.04480 32606 ft 496 kts 69°
2026-05-06 17:45 53.53866 173.15186 32607 ft 496 kts 69°
2026-05-06 17:46 53.56518 173.25809 32604 ft 495 kts 69°
2026-05-06 17:46 53.59175 173.36505 32603 ft 495 kts 69°
2026-05-06 17:47 53.61818 173.47201 32614 ft 494 kts 69°
2026-05-06 17:47 53.64448 173.57891 32615 ft 494 kts 69°
2026-05-06 17:48 53.67070 173.68602 32613 ft 493 kts 70°
2026-05-06 17:48 53.69676 173.79297 32614 ft 492 kts 70°
2026-05-06 17:49 53.72258 173.89950 32619 ft 492 kts 70°
2026-05-06 17:49 53.74840 174.00652 32621 ft 491 kts 70°
2026-05-06 17:50 53.77393 174.11288 32626 ft 491 kts 70°
2026-05-06 17:50 53.79950 174.21994 32627 ft 490 kts 70°
2026-05-06 17:51 53.82495 174.32703 32629 ft 490 kts 70°
2026-05-06 17:51 53.85032 174.43429 32630 ft 490 kts 71°
2026-05-06 17:52 53.87538 174.54076 32632 ft 489 kts 71°
2026-05-06 17:52 53.90050 174.64807 32633 ft 488 kts 71°
2026-05-06 17:53 53.92545 174.75512 32636 ft 488 kts 71°
2026-05-06 17:53 53.95026 174.86216 32637 ft 487 kts 71°
2026-05-06 17:54 53.97497 174.96927 32643 ft 486 kts 72°
2026-05-06 17:54 53.99939 175.07564 32642 ft 485 kts 72°
2026-05-06 17:55 54.02384 175.18272 32642 ft 484 kts 72°
2026-05-06 17:55 54.04815 175.28970 32643 ft 484 kts 72°
2026-05-06 17:56 54.07231 175.39660 32649 ft 483 kts 72°
2026-05-06 17:56 54.09634 175.50345 32653 ft 482 kts 72°
2026-05-06 17:57 54.12009 175.60961 32657 ft 482 kts 73°
2026-05-06 17:57 54.14386 175.71640 32659 ft 481 kts 73°
2026-05-06 17:58 54.16757 175.82341 32662 ft 480 kts 73°
2026-05-06 17:58 54.19092 175.92939 32664 ft 480 kts 73°
2026-05-06 17:59 54.21433 176.03616 32665 ft 479 kts 73°
2026-05-06 17:59 54.23758 176.14277 32683 ft 478 kts 74°
2026-05-06 18:00 54.26057 176.24877 32667 ft 477 kts 74°
2026-05-06 18:00 54.28356 176.35528 32686 ft 476 kts 74°
2026-05-06 18:01 54.30640 176.46162 32689 ft 475 kts 75°
2026-05-06 18:01 54.32912 176.56801 32696 ft 474 kts 75°
2026-05-06 18:02 54.35155 176.67356 32701 ft 473 kts 75°
2026-05-06 18:02 54.37397 176.77962 32705 ft 473 kts 75°
2026-05-06 18:03 54.39628 176.88573 32708 ft 472 kts 75°
2026-05-06 18:03 54.41847 176.99179 32715 ft 471 kts 75°
2026-05-06 18:04 54.44053 177.09781 32721 ft 471 kts 76°
2026-05-06 18:04 54.46243 177.20365 32723 ft 470 kts 76°
2026-05-06 18:05 54.48424 177.30957 32729 ft 469 kts 76°
2026-05-06 18:05 54.50589 177.41530 32739 ft 468 kts 76°
2026-05-06 18:06 54.52745 177.52118 32746 ft 469 kts 76°
2026-05-06 18:06 54.54890 177.62703 32744 ft 467 kts 77°
2026-05-06 18:07 54.57012 177.73228 32750 ft 466 kts 77°
2026-05-06 18:07 54.59131 177.83802 32757 ft 465 kts 77°
2026-05-06 18:08 54.61223 177.94294 32762 ft 465 kts 77°
2026-05-06 18:08 54.63319 178.04868 32767 ft 465 kts 77°
2026-05-06 18:09 54.65407 178.15452 32772 ft 465 kts 77°
2026-05-06 18:09 54.67487 178.26060 32795 ft 466 kts 77°
2026-05-06 18:10 54.69544 178.36605 32791 ft 466 kts 77°
2026-05-06 18:10 54.71612 178.47262 32790 ft 466 kts 77°
2026-05-06 18:11 54.73328 178.56154 32790 ft 466 kts 78°
2026-05-06 18:11 54.75704 178.68528 32798 ft 466 kts 78°
2026-05-06 18:12 54.77742 178.79208 32796 ft 466 kts 78°
2026-05-06 18:12 54.79754 178.89813 32806 ft 465 kts 78°
2026-05-06 18:13 54.81769 179.00490 32811 ft 465 kts 78°
2026-05-06 18:13 54.83773 179.11176 32823 ft 465 kts 78°
2026-05-06 18:14 54.85768 179.21868 32820 ft 465 kts 78°
2026-05-06 18:14 54.87738 179.32489 32824 ft 465 kts 78°
2026-05-06 18:15 54.89712 179.43192 32831 ft 465 kts 78°
2026-05-06 18:15 54.91675 179.53896 32833 ft 465 kts 78°
2026-05-06 18:16 54.93630 179.64618 32854 ft 465 kts 78°
2026-05-06 18:16 54.95573 179.75339 32852 ft 465 kts 78°
2026-05-06 18:17 54.97497 179.86017 32849 ft 465 kts 78°
2026-05-06 18:17 54.99424 179.96762 32851 ft 465 kts 78°
2026-05-06 18:18 55.01765 -179.92672 32863 ft 470 kts 72°
2026-05-06 18:18 55.03973 -179.83999 32866 ft 471 kts 72°
2026-05-06 18:19 55.06637 -179.73519 32873 ft 471 kts 72°
2026-05-06 18:19 55.09264 -179.63047 32878 ft 471 kts 72°
2026-05-06 18:20 55.11852 -179.52617 32890 ft 471 kts 72°
2026-05-06 18:20 55.14447 -179.42096 32887 ft 471 kts 72°
2026-05-06 18:21 55.17038 -179.31544 32890 ft 471 kts 72°
2026-05-06 18:21 55.19620 -179.20981 32894 ft 472 kts 72°
2026-05-06 18:22 55.22176 -179.10473 32899 ft 472 kts 72°
2026-05-06 18:22 55.24739 -178.99883 32909 ft 473 kts 72°
2026-05-06 18:23 55.27299 -178.89259 32911 ft 473 kts 73°
2026-05-06 18:23 55.29853 -178.78605 32925 ft 474 kts 73°
2026-05-06 18:24 55.32405 -178.67907 32919 ft 475 kts 73°
2026-05-06 18:24 55.34952 -178.57174 32925 ft 476 kts 73°
2026-05-06 18:25 55.37477 -178.46484 32937 ft 476 kts 73°
2026-05-06 18:25 55.40010 -178.35707 32935 ft 477 kts 73°
2026-05-06 18:26 55.42546 -178.24861 32941 ft 478 kts 73°
2026-05-06 18:26 55.45068 -178.14021 32946 ft 479 kts 73°
2026-05-06 18:27 55.47585 -178.03148 32962 ft 480 kts 73°
2026-05-06 18:27 55.50083 -177.92302 32956 ft 481 kts 73°
2026-05-06 18:28 55.52591 -177.81354 32958 ft 481 kts 73°
2026-05-06 18:28 55.55095 -177.70373 32963 ft 482 kts 73°
2026-05-06 18:29 55.57590 -177.59368 32970 ft 482 kts 73°
2026-05-06 18:29 55.60061 -177.48412 32967 ft 482 kts 73°
2026-05-06 18:30 55.62537 -177.37379 32975 ft 483 kts 73°
2026-05-06 18:30 55.65009 -177.26307 32979 ft 483 kts 73°
2026-05-06 18:31 55.67468 -177.15228 32989 ft 483 kts 73°
2026-05-06 18:31 55.69914 -177.04153 32985 ft 484 kts 73°
2026-05-06 18:32 55.72362 -176.93011 32992 ft 484 kts 73°
2026-05-06 18:32 55.74781 -176.81938 33000 ft 484 kts 73°
2026-05-06 18:33 55.77213 -176.70746 32998 ft 485 kts 73°
2026-05-06 18:33 55.79630 -176.59565 33003 ft 485 kts 73°
2026-05-06 18:34 55.82043 -176.48339 33005 ft 485 kts 73°
2026-05-06 18:34 55.84431 -176.37170 33009 ft 486 kts 73°
2026-05-06 18:35 55.86823 -176.25919 33016 ft 486 kts 73°
2026-05-06 18:35 55.89212 -176.14623 33017 ft 487 kts 73°
2026-05-06 18:36 55.91592 -176.03302 33023 ft 488 kts 73°
2026-05-06 18:36 55.93963 -175.91963 33034 ft 488 kts 73°
2026-05-06 18:37 55.96317 -175.80643 33032 ft 489 kts 73°
2026-05-06 18:37 55.98675 -175.69236 33036 ft 489 kts 73°
2026-05-06 18:38 56.01022 -175.57821 33043 ft 490 kts 73°
2026-05-06 18:38 56.03370 -175.46335 33044 ft 490 kts 73°
2026-05-06 18:39 56.05686 -175.34937 33046 ft 491 kts 73°
2026-05-06 18:40 56.09172 -175.17659 33053 ft 492 kts 73°
2026-05-06 18:40 56.11484 -175.06117 33062 ft 492 kts 73°
2026-05-06 18:41 56.13790 -174.94536 33065 ft 493 kts 73°
2026-05-06 18:41 56.16076 -174.82987 33066 ft 493 kts 73°
2026-05-06 18:42 56.18362 -174.71371 33069 ft 494 kts 73°
2026-05-06 18:42 56.20639 -174.59734 33070 ft 494 kts 73°
2026-05-06 18:43 56.22905 -174.48076 33072 ft 494 kts 73°
2026-05-06 18:43 56.25163 -174.36395 33082 ft 494 kts 73°
2026-05-06 18:44 56.27412 -174.24690 33085 ft 495 kts 73°
2026-05-06 18:44 56.29650 -174.12966 33088 ft 495 kts 73°
2026-05-06 18:45 56.31878 -174.01228 33092 ft 495 kts 73°
2026-05-06 18:45 56.34098 -173.89458 33094 ft 496 kts 73°
2026-05-06 18:46 56.36303 -173.77690 33097 ft 496 kts 73°
2026-05-06 18:46 56.38491 -173.65945 33099 ft 496 kts 73°
2026-05-06 18:47 56.40681 -173.54114 33103 ft 497 kts 73°
2026-05-06 18:47 56.42863 -173.42255 33104 ft 497 kts 73°
2026-05-06 18:48 56.45024 -173.30433 33111 ft 498 kts 73°
2026-05-06 18:48 56.47190 -173.18507 33108 ft 498 kts 73°
2026-05-06 18:49 56.49346 -173.06560 33115 ft 499 kts 73°
2026-05-06 18:49 56.51476 -172.94677 33113 ft 499 kts 73°
2026-05-06 18:50 56.53610 -172.82696 33116 ft 500 kts 73°
2026-05-06 18:50 56.55735 -172.70689 33120 ft 500 kts 73°
2026-05-06 18:51 56.57849 -172.58667 33122 ft 500 kts 73°
2026-05-06 18:51 56.59957 -172.46598 33123 ft 501 kts 73°
2026-05-06 18:52 56.62039 -172.34595 33128 ft 501 kts 73°
2026-05-06 18:52 56.64127 -172.22478 33127 ft 502 kts 73°
2026-05-06 18:53 56.66201 -172.10363 33130 ft 502 kts 73°
2026-05-06 18:53 56.68268 -171.98206 33134 ft 503 kts 73°
2026-05-06 18:54 56.70311 -171.86106 33136 ft 504 kts 73°
2026-05-06 18:54 56.72359 -171.73896 33135 ft 504 kts 73°
2026-05-06 18:55 56.74399 -171.61647 33137 ft 505 kts 73°
2026-05-06 18:55 56.76428 -171.49378 33139 ft 505 kts 73°
2026-05-06 18:56 56.78442 -171.37109 33142 ft 505 kts 73°
2026-05-06 18:56 56.80436 -171.24885 33148 ft 506 kts 73°
2026-05-06 18:57 56.82428 -171.12579 33149 ft 506 kts 73°
2026-05-06 18:57 56.84416 -171.00216 33149 ft 506 kts 73°
2026-05-06 18:58 56.86386 -170.87869 33148 ft 507 kts 73°
2026-05-06 18:58 56.88348 -170.75486 33152 ft 507 kts 73°
2026-05-06 18:59 56.90303 -170.63056 33155 ft 508 kts 73°
2026-05-06 18:59 56.92233 -170.50696 33163 ft 508 kts 73°
2026-05-06 19:00 56.94166 -170.38224 33169 ft 509 kts 73°
2026-05-06 19:00 56.96088 -170.25730 33171 ft 509 kts 73°
2026-05-06 19:01 56.97997 -170.13225 33177 ft 509 kts 73°
2026-05-06 19:01 56.99896 -170.00705 33178 ft 510 kts 73°
2026-05-06 19:02 57.01733 -169.88110 33171 ft 511 kts 74°
2026-05-06 19:02 57.03492 -169.75565 33169 ft 511 kts 74°
2026-05-06 19:03 57.05256 -169.62893 33162 ft 511 kts 74°
2026-05-06 19:03 57.07017 -169.50226 33164 ft 511 kts 74°
2026-05-06 19:04 57.08768 -169.37555 33165 ft 511 kts 73°
2026-05-06 19:04 57.10510 -169.24853 33161 ft 512 kts 73°
2026-05-06 19:05 57.12226 -169.12234 33170 ft 512 kts 73°
2026-05-06 19:05 57.13940 -168.99511 33172 ft 512 kts 73°
2026-05-06 19:06 57.15647 -168.86745 33170 ft 513 kts 73°
2026-05-06 19:06 57.17056 -168.76118 33172 ft 513 kts 73°
2026-05-06 19:07 57.18739 -168.63323 33172 ft 513 kts 73°
2026-05-06 19:07 57.20409 -168.50515 33176 ft 514 kts 73°
2026-05-06 19:08 57.22070 -168.37672 33174 ft 514 kts 73°
2026-05-06 19:08 57.23716 -168.24826 33171 ft 515 kts 73°
2026-05-06 19:09 57.25352 -168.11949 33174 ft 515 kts 73°
2026-05-06 19:09 57.26978 -167.99031 33180 ft 515 kts 74°
2026-05-06 19:10 57.28587 -167.86130 33166 ft 516 kts 74°
2026-05-06 19:10 57.30178 -167.73262 33171 ft 516 kts 74°
2026-05-06 19:11 57.31764 -167.60310 33184 ft 516 kts 74°
2026-05-06 19:11 57.33333 -167.47382 33184 ft 516 kts 74°
2026-05-06 19:12 57.34893 -167.34404 33182 ft 516 kts 74°
2026-05-06 19:12 57.36440 -167.21415 33180 ft 517 kts 74°
2026-05-06 19:13 57.37979 -167.08369 33181 ft 517 kts 74°
2026-05-06 19:13 57.39500 -166.95348 33181 ft 517 kts 74°
2026-05-06 19:14 57.41008 -166.82314 33187 ft 517 kts 74°
2026-05-06 19:14 57.42492 -166.69360 33182 ft 516 kts 74°
2026-05-06 19:15 57.43975 -166.56297 33176 ft 516 kts 74°
2026-05-06 19:15 57.45440 -166.43252 33177 ft 515 kts 74°
2026-05-06 19:16 57.46888 -166.30225 33179 ft 514 kts 74°
2026-05-06 19:16 57.48320 -166.17224 33175 ft 513 kts 75°
2026-05-06 19:17 57.49728 -166.04299 33180 ft 512 kts 75°
2026-05-06 19:17 57.51129 -165.91313 33173 ft 511 kts 75°
2026-05-06 19:18 57.52515 -165.78329 33171 ft 510 kts 75°
2026-05-06 19:18 57.53881 -165.65401 33167 ft 508 kts 76°
2026-05-06 19:19 57.55231 -165.52495 33166 ft 507 kts 76°
2026-05-06 19:19 57.56557 -165.39673 33171 ft 506 kts 76°
2026-05-06 19:20 57.57875 -165.26801 33173 ft 504 kts 76°
2026-05-06 19:20 57.59174 -165.13971 33172 ft 503 kts 76°
2026-05-06 19:21 57.60454 -165.01201 33171 ft 503 kts 77°
2026-05-06 19:21 57.61724 -164.88388 33172 ft 502 kts 77°
2026-05-06 19:22 57.62982 -164.75563 33170 ft 502 kts 77°
2026-05-06 19:22 57.64226 -164.62732 33177 ft 501 kts 77°
2026-05-06 19:23 57.65453 -164.49939 33174 ft 501 kts 77°
2026-05-06 19:23 57.66667 -164.37130 33170 ft 500 kts 77°
2026-05-06 19:24 57.67868 -164.24328 33172 ft 500 kts 78°
2026-05-06 19:24 57.69046 -164.11608 33171 ft 499 kts 78°
2026-05-06 19:25 57.70220 -163.98801 33166 ft 499 kts 78°
2026-05-06 19:25 57.71379 -163.85998 33170 ft 499 kts 78°
2026-05-06 19:26 57.72526 -163.73180 33166 ft 498 kts 78°
2026-05-06 19:26 57.73648 -163.60483 33176 ft 498 kts 78°
2026-05-06 19:27 57.74766 -163.47686 33169 ft 498 kts 78°
2026-05-06 19:27 57.75871 -163.34889 33171 ft 498 kts 78°
2026-05-06 19:28 57.76962 -163.22082 33169 ft 498 kts 79°
2026-05-06 19:28 57.78042 -163.09254 33172 ft 497 kts 79°
2026-05-06 19:29 57.79107 -162.96434 33177 ft 497 kts 79°
2026-05-06 19:29 57.80159 -162.83616 33176 ft 497 kts 79°
2026-05-06 19:30 57.81190 -162.70893 33176 ft 497 kts 79°
2026-05-06 19:30 57.82216 -162.58067 33173 ft 496 kts 79°
2026-05-06 19:31 57.83228 -162.45238 33172 ft 496 kts 80°
2026-05-06 19:31 57.84719 -162.26015 33172 ft 496 kts 80°
2026-05-06 19:32 57.85697 -162.13197 33172 ft 496 kts 80°
2026-05-06 19:32 57.86655 -162.00455 33170 ft 496 kts 81°
2026-05-06 19:33 57.87610 -161.87593 33193 ft 497 kts 81°
2026-05-06 19:33 57.88083 -161.81145 33407 ft 499 kts 81°
2026-05-06 19:33 57.88553 -161.74700 33742 ft 497 kts 81°
2026-05-06 19:34 57.89017 -161.68278 34091 ft 496 kts 81°
2026-05-06 19:34 57.89477 -161.61862 34365 ft 495 kts 81°
2026-05-06 19:34 57.89935 -161.55438 34575 ft 495 kts 81°
2026-05-06 19:34 57.90390 -161.49014 34760 ft 496 kts 81°
2026-05-06 19:35 57.90843 -161.42575 34957 ft 497 kts 81°
2026-05-06 19:35 57.91293 -161.36115 35078 ft 499 kts 81°
2026-05-06 19:35 57.92189 -161.23122 35156 ft 500 kts 81°
2026-05-06 19:36 57.93064 -161.10221 35159 ft 495 kts 81°
2026-05-06 19:36 57.93919 -160.97435 35161 ft 494 kts 82°
2026-05-06 19:37 57.94765 -160.84582 35155 ft 494 kts 82°
2026-05-06 19:37 57.95458 -160.73901 35156 ft 495 kts 82°
2026-05-06 19:38 57.96421 -160.58821 35156 ft 496 kts 82°
2026-05-06 19:38 57.97225 -160.45987 35155 ft 497 kts 82°
2026-05-06 19:39 57.98025 -160.33014 35155 ft 498 kts 82°
2026-05-06 19:39 57.98813 -160.20022 35147 ft 499 kts 83°
2026-05-06 19:40 57.99589 -160.07024 35146 ft 499 kts 83°
2026-05-06 19:40 58.00311 -159.94017 35145 ft 499 kts 84°
2026-05-06 19:41 58.00804 -159.81054 35144 ft 498 kts 86°
2026-05-06 19:41 58.01239 -159.68013 35144 ft 498 kts 86°
2026-05-06 19:42 58.01687 -159.54973 35140 ft 498 kts 85°
2026-05-06 19:42 58.02143 -159.41928 35142 ft 497 kts 86°
2026-05-06 19:43 58.02589 -159.28950 35141 ft 497 kts 86°
2026-05-06 19:43 58.03023 -159.15922 35136 ft 498 kts 86°
2026-05-06 19:44 58.03443 -159.02888 35139 ft 498 kts 86°
2026-05-06 19:44 58.03849 -158.89827 35134 ft 498 kts 86°
2026-05-06 19:45 58.04242 -158.76772 35136 ft 499 kts 86°
2026-05-06 19:45 58.04622 -158.63688 35136 ft 499 kts 86°
2026-05-06 19:46 58.04989 -158.50595 35136 ft 499 kts 87°
2026-05-06 19:46 58.05341 -158.37559 35130 ft 500 kts 87°
2026-05-06 19:47 58.05682 -158.24438 35136 ft 500 kts 87°
2026-05-06 19:47 58.06009 -158.11323 35138 ft 500 kts 87°
2026-05-06 19:48 58.06322 -157.98191 35136 ft 500 kts 88°
2026-05-06 19:48 58.06623 -157.85049 35146 ft 500 kts 88°
2026-05-06 19:49 58.06910 -157.71901 35150 ft 501 kts 88°
2026-05-06 19:49 58.07182 -157.58844 35149 ft 501 kts 88°
2026-05-06 19:50 58.07442 -157.45691 35153 ft 501 kts 88°
2026-05-06 19:50 58.07689 -157.32505 35153 ft 501 kts 88°
2026-05-06 19:51 58.07922 -157.19321 35155 ft 502 kts 88°
2026-05-06 19:51 58.08142 -157.06122 35150 ft 502 kts 89°
2026-05-06 19:52 58.08348 -156.92950 35140 ft 502 kts 89°
2026-05-06 19:52 58.08540 -156.79823 35142 ft 502 kts 89°
2026-05-06 19:53 58.08719 -156.66614 35132 ft 503 kts 89°
2026-05-06 19:53 58.08884 -156.53394 35135 ft 503 kts 89°
2026-05-06 19:54 58.09012 -156.42377 35130 ft 504 kts 89°
2026-05-06 19:54 58.09153 -156.29108 35136 ft 505 kts 89°
2026-05-06 19:55 58.09281 -156.15825 35133 ft 505 kts 89°
2026-05-06 19:55 58.09394 -156.02531 35133 ft 506 kts 89°
2026-05-06 19:56 58.09494 -155.89218 35130 ft 506 kts 90°
2026-05-06 19:56 58.09580 -155.75888 35130 ft 507 kts 90°
2026-05-06 19:57 58.09652 -155.62648 35120 ft 507 kts 90°
2026-05-06 19:57 58.09711 -155.49289 35119 ft 508 kts 90°
2026-05-06 19:58 58.09755 -155.35905 35108 ft 508 kts 90°
2026-05-06 19:58 58.09786 -155.22527 35099 ft 509 kts 90°
2026-05-06 19:59 58.09803 -155.09128 35079 ft 509 kts 90°
2026-05-06 19:59 58.09805 -154.95805 35090 ft 510 kts 90°
2026-05-06 20:00 58.09794 -154.82365 35078 ft 511 kts 90°
2026-05-06 20:00 58.09768 -154.68894 35074 ft 512 kts 90°
2026-05-06 20:01 58.09728 -154.55406 35083 ft 513 kts 90°
2026-05-06 20:01 58.09674 -154.41987 35070 ft 514 kts 90°
2026-05-06 20:02 58.09605 -154.28380 35071 ft 515 kts 90°
2026-05-06 20:02 58.09522 -154.14941 35067 ft 515 kts 91°
2026-05-06 20:03 58.09425 -154.01408 35070 ft 515 kts 91°
2026-05-06 20:03 58.09313 -153.87865 35067 ft 515 kts 91°
2026-05-06 20:04 58.09187 -153.74297 35070 ft 515 kts 91°
2026-05-06 20:04 58.09046 -153.60748 35068 ft 516 kts 91°
2026-05-06 20:05 58.08892 -153.47240 35062 ft 516 kts 91°
2026-05-06 20:05 58.08722 -153.33621 35064 ft 517 kts 91°
2026-05-06 20:06 58.08537 -153.20038 35054 ft 517 kts 91°
2026-05-06 20:06 58.08339 -153.06455 35049 ft 518 kts 91°
2026-05-06 20:07 58.08127 -152.92933 35057 ft 518 kts 91°
2026-05-06 20:07 58.07898 -152.79300 35046 ft 519 kts 91°
2026-05-06 20:08 58.07655 -152.65672 35035 ft 519 kts 92°
2026-05-06 20:08 58.07397 -152.52035 35045 ft 520 kts 92°
2026-05-06 20:09 58.07124 -152.38378 35045 ft 520 kts 92°
2026-05-06 20:09 58.06836 -152.24700 35047 ft 521 kts 92°
2026-05-06 20:10 58.06535 -152.11088 35043 ft 522 kts 92°
2026-05-06 20:10 58.06217 -151.97376 35052 ft 522 kts 92°
2026-05-06 20:11 58.05885 -151.83675 35048 ft 523 kts 92°
2026-05-06 20:11 58.05537 -151.69952 35057 ft 523 kts 92°
2026-05-06 20:12 58.05174 -151.56219 35053 ft 523 kts 93°
2026-05-06 20:12 58.04798 -151.42559 35048 ft 524 kts 93°
2026-05-06 20:13 58.04406 -151.28838 35047 ft 524 kts 93°
2026-05-06 20:13 58.03997 -151.15073 35057 ft 524 kts 93°
2026-05-06 20:14 58.03574 -151.01316 35059 ft 524 kts 93°
2026-05-06 20:14 58.03138 -150.87602 35046 ft 524 kts 94°
2026-05-06 20:15 58.02688 -150.73937 35050 ft 524 kts 94°
2026-05-06 20:15 58.02221 -150.60210 35059 ft 524 kts 94°
2026-05-06 20:16 58.01739 -150.46467 35049 ft 524 kts 94°
2026-05-06 20:16 58.01242 -150.32717 35054 ft 525 kts 94°
2026-05-06 20:17 58.00731 -150.18977 35057 ft 525 kts 94°
2026-05-06 20:17 58.00207 -150.05252 35055 ft 525 kts 94°
2026-05-06 20:18 58.00206 -149.91566 35061 ft 525 kts 86°
2026-05-06 20:18 58.00770 -149.77806 35059 ft 526 kts 85°
2026-05-06 20:19 58.01340 -149.64034 35063 ft 527 kts 85°
2026-05-06 20:19 58.01859 -149.50234 35058 ft 527 kts 86°
2026-05-06 20:20 58.02340 -149.36426 35057 ft 528 kts 86°
2026-05-06 20:20 58.02802 -149.22604 35051 ft 528 kts 86°
2026-05-06 20:21 58.03252 -149.08743 35051 ft 529 kts 86°
2026-05-06 20:21 58.03686 -148.94965 35055 ft 529 kts 86°
2026-05-06 20:22 58.04109 -148.81100 35054 ft 529 kts 87°
2026-05-06 20:22 58.04517 -148.67223 35052 ft 529 kts 87°
2026-05-06 20:23 58.04910 -148.53332 35052 ft 530 kts 87°
2026-05-06 20:23 58.05288 -148.39420 35049 ft 530 kts 87°
2026-05-06 20:24 58.05650 -148.25519 35047 ft 530 kts 88°
2026-05-06 20:24 58.05996 -148.11695 35050 ft 530 kts 88°
2026-05-06 20:25 58.06330 -147.97737 35050 ft 531 kts 88°
2026-05-06 20:25 58.06647 -147.83821 35051 ft 531 kts 88°
2026-05-06 20:26 58.06950 -147.69858 35045 ft 531 kts 88°
2026-05-06 20:26 58.07237 -147.55932 35047 ft 531 kts 88°
2026-05-06 20:27 58.07510 -147.41965 35044 ft 531 kts 89°
2026-05-06 20:27 58.07765 -147.28089 35041 ft 532 kts 89°
2026-05-06 20:28 58.08007 -147.14121 35040 ft 532 kts 89°
2026-05-06 20:28 58.08234 -147.00145 35046 ft 532 kts 89°
2026-05-06 20:29 58.08446 -146.86152 35047 ft 532 kts 89°
2026-05-06 20:29 58.08642 -146.72186 35040 ft 532 kts 89°
2026-05-06 20:30 58.08907 -146.51281 35043 ft 532 kts 90°
2026-05-06 20:31 58.09065 -146.37286 35050 ft 532 kts 90°
2026-05-06 20:31 58.09208 -146.23283 35051 ft 532 kts 90°
2026-05-06 20:32 58.09336 -146.09298 35053 ft 532 kts 90°
2026-05-06 20:32 58.09448 -145.95321 35055 ft 532 kts 90°
2026-05-06 20:33 58.09545 -145.81341 35057 ft 532 kts 91°
2026-05-06 20:33 58.09626 -145.67438 35061 ft 532 kts 91°
2026-05-06 20:34 58.09692 -145.53446 35064 ft 532 kts 91°
2026-05-06 20:34 58.09743 -145.39459 35062 ft 532 kts 91°
2026-05-06 20:35 58.09778 -145.25446 35065 ft 532 kts 91°
2026-05-06 20:35 58.09799 -145.11551 35073 ft 532 kts 91°
2026-05-06 20:36 58.09804 -144.97566 35073 ft 532 kts 92°
2026-05-06 20:36 58.09793 -144.83568 35081 ft 532 kts 92°
2026-05-06 20:37 58.09768 -144.69574 35082 ft 532 kts 92°
2026-05-06 20:37 58.09727 -144.55551 35082 ft 532 kts 92°
2026-05-06 20:38 58.09671 -144.41611 35087 ft 532 kts 92°
2026-05-06 20:38 58.09599 -144.27581 35089 ft 533 kts 92°
2026-05-06 20:39 58.09512 -144.13568 35091 ft 533 kts 93°
2026-05-06 20:39 58.09428 -144.01918 35095 ft 533 kts 93°
2026-05-06 20:40 58.09312 -143.87902 35097 ft 533 kts 93°
2026-05-06 20:40 58.09181 -143.73862 35097 ft 533 kts 93°
2026-05-06 20:41 58.09035 -143.59848 35102 ft 533 kts 94°
2026-05-06 20:41 58.08874 -143.45824 35109 ft 533 kts 94°
2026-05-06 20:42 58.08698 -143.31909 35108 ft 533 kts 94°
2026-05-06 20:42 58.08506 -143.17884 35108 ft 533 kts 94°
2026-05-06 20:43 58.08298 -143.03862 35113 ft 533 kts 94°
2026-05-06 20:43 58.08075 -142.89863 35120 ft 533 kts 94°
2026-05-06 20:44 58.07837 -142.75837 35112 ft 533 kts 95°
2026-05-06 20:44 58.07583 -142.61831 35126 ft 534 kts 95°
2026-05-06 20:45 58.07315 -142.47896 35116 ft 534 kts 95°
2026-05-06 20:45 58.07031 -142.33897 35118 ft 534 kts 95°
2026-05-06 20:46 58.06730 -142.19860 35129 ft 534 kts 95°
2026-05-06 20:46 58.06415 -142.05840 35134 ft 534 kts 95°
2026-05-06 20:47 58.06084 -141.91835 35136 ft 534 kts 95°
2026-05-06 20:47 58.05738 -141.77831 35134 ft 534 kts 96°
2026-05-06 20:48 58.05379 -141.63911 35135 ft 534 kts 96°
2026-05-06 20:48 58.05002 -141.49923 35138 ft 534 kts 96°
2026-05-06 20:49 58.04609 -141.35901 35139 ft 534 kts 96°
2026-05-06 20:49 58.04202 -141.21920 35142 ft 534 kts 96°
2026-05-06 20:50 58.03779 -141.07918 35148 ft 534 kts 96°
2026-05-06 20:50 58.03340 -140.93918 35149 ft 534 kts 96°
2026-05-06 20:51 58.02887 -140.79927 35150 ft 534 kts 97°
2026-05-06 20:51 58.02421 -140.66049 35154 ft 534 kts 97°
2026-05-06 20:52 58.01937 -140.52055 35160 ft 534 kts 97°
2026-05-06 20:52 58.01438 -140.38084 35160 ft 534 kts 97°
2026-05-06 20:53 58.00923 -140.24101 35161 ft 534 kts 97°
2026-05-06 20:53 58.00394 -140.10139 35163 ft 534 kts 97°
2026-05-06 20:54 57.99837 -139.96185 35168 ft 533 kts 98°
2026-05-06 20:54 57.99050 -139.82376 35169 ft 533 kts 100°
2026-05-06 20:55 57.98151 -139.68510 35171 ft 532 kts 100°
2026-05-06 20:55 57.97261 -139.54663 35171 ft 533 kts 100°
2026-05-06 20:56 57.96386 -139.40798 35173 ft 532 kts 100°
2026-05-06 20:56 57.95510 -139.27010 35181 ft 532 kts 100°
2026-05-06 20:57 57.94616 -139.13176 35183 ft 532 kts 100°
2026-05-06 20:57 57.93702 -138.99329 35179 ft 532 kts 100°
2026-05-06 20:58 57.92774 -138.85512 35189 ft 532 kts 101°
2026-05-06 20:58 57.91829 -138.71679 35191 ft 532 kts 101°
2026-05-06 20:59 57.90871 -138.57868 35194 ft 532 kts 101°
2026-05-06 20:59 57.89904 -138.44160 35193 ft 532 kts 101°
2026-05-06 21:00 57.88916 -138.30366 35198 ft 532 kts 101°
2026-05-06 21:00 57.87911 -138.16556 35196 ft 532 kts 101°
2026-05-06 21:01 57.86892 -138.02760 35206 ft 532 kts 101°
2026-05-06 21:01 57.85859 -137.88990 35213 ft 533 kts 101°
2026-05-06 21:02 57.84816 -137.75288 35205 ft 533 kts 101°
2026-05-06 21:02 57.83752 -137.61515 35213 ft 533 kts 101°
2026-05-06 21:03 57.82672 -137.47743 35212 ft 533 kts 102°
2026-05-06 21:03 57.81578 -137.33979 35210 ft 533 kts 102°
2026-05-06 21:04 57.80477 -137.20330 35212 ft 533 kts 102°
2026-05-06 21:04 57.79352 -137.06572 35222 ft 532 kts 102°
2026-05-06 21:05 57.78213 -136.92835 35216 ft 532 kts 102°
2026-05-06 21:05 57.77061 -136.79130 35223 ft 532 kts 102°
2026-05-06 21:06 57.75902 -136.65522 35227 ft 532 kts 102°
2026-05-06 21:06 57.74722 -136.51843 35232 ft 532 kts 102°
2026-05-06 21:07 57.73527 -136.38176 35228 ft 532 kts 102°
2026-05-06 21:07 57.72319 -136.24532 35235 ft 532 kts 102°
2026-05-06 21:08 57.71096 -136.10900 35241 ft 532 kts 102°
2026-05-06 21:08 57.69857 -135.97257 35242 ft 532 kts 102°
2026-05-06 21:09 57.68603 -135.83626 35246 ft 531 kts 103°
2026-05-06 21:09 57.67336 -135.70020 35237 ft 531 kts 103°
2026-05-06 21:10 57.66054 -135.56428 35239 ft 531 kts 103°
2026-05-06 21:10 57.64758 -135.42829 35244 ft 532 kts 103°
2026-05-06 21:11 57.63454 -135.29310 35236 ft 532 kts 103°
2026-05-06 21:11 57.62124 -135.15719 35218 ft 533 kts 103°
2026-05-06 21:12 57.60779 -135.02121 35212 ft 533 kts 103°
2026-05-06 21:12 57.59422 -134.88535 35221 ft 533 kts 103°
2026-05-06 21:13 57.58046 -134.74922 35213 ft 533 kts 103°
2026-05-06 21:13 57.56669 -134.61444 35216 ft 533 kts 103°
2026-05-06 21:14 57.55265 -134.47873 35228 ft 532 kts 103°
2026-05-06 21:14 57.53851 -134.34344 35245 ft 532 kts 103°
2026-05-06 21:15 57.52419 -134.20808 35240 ft 532 kts 103°
2026-05-06 21:15 57.50985 -134.07390 35249 ft 532 kts 103°
2026-05-06 21:16 57.49529 -133.93901 35245 ft 531 kts 104°
2026-05-06 21:16 57.48061 -133.80448 35249 ft 530 kts 104°
2026-05-06 21:17 57.46578 -133.67015 35252 ft 530 kts 104°
2026-05-06 21:17 57.45085 -133.53620 35257 ft 530 kts 104°
2026-05-06 21:18 57.43577 -133.40226 35260 ft 530 kts 104°
2026-05-06 21:18 57.42057 -133.26870 35266 ft 530 kts 104°
2026-05-06 21:19 57.40514 -133.13443 35273 ft 530 kts 104°
2026-05-06 21:19 57.38971 -133.00155 35285 ft 529 kts 104°
2026-05-06 21:20 57.37402 -132.86773 35291 ft 530 kts 104°
2026-05-06 21:20 57.35832 -132.73510 35293 ft 529 kts 104°
2026-05-06 21:21 57.34241 -132.60203 35275 ft 529 kts 104°
2026-05-06 21:21 57.32636 -132.46896 35283 ft 529 kts 104°
2026-05-06 21:22 57.31014 -132.33594 35278 ft 530 kts 105°
2026-05-06 21:22 57.29380 -132.20310 35256 ft 530 kts 105°
2026-05-06 21:23 57.27744 -132.07135 35247 ft 530 kts 105°
2026-05-06 21:23 57.26078 -131.93841 35233 ft 530 kts 105°
2026-05-06 21:24 57.24400 -131.80585 35238 ft 530 kts 105°
2026-05-06 21:24 57.22709 -131.67334 35228 ft 530 kts 105°
2026-05-06 21:25 57.21004 -131.54107 35245 ft 529 kts 105°
2026-05-06 21:25 57.19286 -131.40907 35236 ft 529 kts 105°
2026-05-06 21:26 57.17560 -131.27736 35232 ft 527 kts 105°
2026-05-06 21:26 57.15824 -131.14618 35230 ft 526 kts 105°
2026-05-06 21:27 57.14087 -131.01623 35226 ft 525 kts 105°
2026-05-06 21:27 57.12616 -130.90689 35220 ft 524 kts 105°
2026-05-06 21:28 57.10860 -130.77740 35200 ft 524 kts 106°
2026-05-06 21:28 57.09080 -130.64739 35187 ft 524 kts 106°
2026-05-06 21:29 57.07288 -130.51746 35182 ft 524 kts 106°
2026-05-06 21:29 57.05481 -130.38759 35191 ft 524 kts 106°
2026-05-06 21:30 57.03658 -130.25768 35166 ft 525 kts 106°
2026-05-06 21:30 57.01821 -130.12778 35161 ft 525 kts 106°
2026-05-06 21:31 56.99972 -129.99803 35140 ft 525 kts 106°
2026-05-06 21:31 56.98060 -129.86968 35148 ft 524 kts 107°
2026-05-06 21:32 56.96073 -129.74096 35133 ft 524 kts 108°
2026-05-06 21:32 56.93092 -129.54890 35114 ft 523 kts 108°
2026-05-06 21:33 56.91101 -129.42098 35100 ft 521 kts 108°
2026-05-06 21:33 56.89104 -129.29347 35095 ft 520 kts 108°
2026-05-06 21:34 56.87096 -129.16639 35084 ft 519 kts 108°
2026-05-06 21:34 56.85080 -129.03985 35054 ft 518 kts 108°
2026-05-06 21:35 56.83052 -128.91337 35050 ft 519 kts 108°
2026-05-06 21:35 56.81017 -128.78741 35029 ft 519 kts 108°
2026-05-06 21:36 56.78961 -128.66102 35034 ft 520 kts 108°
2026-05-06 21:36 56.76887 -128.53453 35011 ft 521 kts 108°
2026-05-06 21:37 56.74793 -128.40776 35004 ft 521 kts 109°
2026-05-06 21:37 56.72691 -128.28133 34995 ft 521 kts 109°
2026-05-06 21:38 56.70582 -128.15541 35003 ft 520 kts 109°
2026-05-06 21:38 56.68474 -128.03049 35003 ft 518 kts 109°
2026-05-06 21:39 56.66348 -127.90532 35003 ft 517 kts 109°
2026-05-06 21:39 56.64211 -127.78043 34992 ft 517 kts 109°
2026-05-06 21:40 56.62058 -127.65552 34993 ft 516 kts 109°
2026-05-06 21:40 56.59915 -127.53197 34994 ft 517 kts 109°
2026-05-06 21:41 56.57736 -127.40730 34988 ft 518 kts 110°
2026-05-06 21:41 56.55549 -127.28291 34981 ft 518 kts 110°
2026-05-06 21:42 56.53348 -127.15858 34984 ft 517 kts 110°
2026-05-06 21:42 56.51149 -127.03527 34974 ft 517 kts 110°
2026-05-06 21:43 56.48923 -126.91132 34978 ft 516 kts 110°
2026-05-06 21:43 56.46696 -126.78802 34980 ft 516 kts 110°
2026-05-06 21:44 56.44450 -126.66460 34973 ft 516 kts 110°
2026-05-06 21:44 56.42196 -126.54148 34968 ft 516 kts 110°
2026-05-06 21:45 56.39929 -126.41848 34968 ft 516 kts 110°
2026-05-06 21:45 56.37650 -126.29563 34967 ft 516 kts 110°
2026-05-06 21:46 56.35376 -126.17386 34975 ft 516 kts 110°
2026-05-06 21:46 56.33072 -126.05128 34988 ft 515 kts 111°
2026-05-06 21:47 56.30759 -125.92905 34967 ft 515 kts 111°
2026-05-06 21:47 56.28438 -125.80708 34979 ft 514 kts 111°
2026-05-06 21:48 56.26106 -125.68538 34968 ft 514 kts 111°
2026-05-06 21:48 56.23762 -125.56375 34955 ft 513 kts 111°
2026-05-06 21:49 56.21412 -125.44262 34951 ft 513 kts 111°
2026-05-06 21:49 56.19053 -125.32189 34941 ft 512 kts 111°
2026-05-06 21:50 56.16688 -125.20154 34932 ft 511 kts 111°
2026-05-06 21:50 56.14329 -125.08214 34927 ft 511 kts 111°
2026-05-06 21:51 56.11945 -124.96225 34923 ft 510 kts 111°
2026-05-06 21:51 56.09549 -124.84249 34905 ft 510 kts 111°
2026-05-06 21:52 56.07144 -124.72301 34901 ft 509 kts 111°
2026-05-06 21:52 56.04731 -124.60386 34887 ft 509 kts 111°
2026-05-06 21:53 56.02305 -124.48483 34884 ft 509 kts 112°
2026-05-06 21:53 55.99883 -124.36665 34868 ft 509 kts 112°
2026-05-06 21:54 55.97440 -124.24810 34876 ft 508 kts 112°
2026-05-06 21:54 55.94987 -124.12982 34863 ft 508 kts 112°
2026-05-06 21:55 55.92525 -124.01185 34867 ft 507 kts 112°
2026-05-06 21:55 55.90051 -123.89391 34870 ft 507 kts 112°
2026-05-06 21:56 55.87565 -123.77614 34872 ft 507 kts 112°
2026-05-06 21:56 55.85085 -123.65931 34886 ft 507 kts 112°
2026-05-06 21:57 55.82583 -123.54210 34873 ft 506 kts 112°
2026-05-06 21:57 55.80066 -123.42487 34876 ft 506 kts 112°
2026-05-06 21:58 55.77549 -123.30836 34881 ft 505 kts 112°
2026-05-06 21:58 55.75028 -123.19225 34886 ft 504 kts 112°
2026-05-06 21:59 55.72512 -123.07702 34882 ft 503 kts 112°
2026-05-06 21:59 55.69972 -122.96136 34895 ft 502 kts 112°
2026-05-06 22:00 55.67423 -122.84603 34880 ft 503 kts 113°
2026-05-06 22:00 55.64852 -122.73024 34901 ft 505 kts 113°
2026-05-06 22:01 55.62274 -122.61475 34885 ft 503 kts 113°
2026-05-06 22:01 55.59694 -122.49984 34887 ft 502 kts 113°
2026-05-06 22:02 55.57116 -122.38565 34875 ft 502 kts 113°
2026-05-06 22:02 55.54516 -122.27109 34884 ft 502 kts 113°
2026-05-06 22:03 55.51900 -122.15650 34873 ft 503 kts 113°
2026-05-06 22:03 55.49268 -122.04180 34860 ft 504 kts 113°
2026-05-06 22:04 55.46642 -121.92799 34852 ft 505 kts 113°
2026-05-06 22:04 55.43983 -121.81334 34843 ft 506 kts 114°
2026-05-06 22:05 55.41313 -121.69881 34838 ft 506 kts 114°
2026-05-06 22:05 55.38628 -121.58427 34863 ft 506 kts 114°
2026-05-06 22:06 55.35932 -121.46991 34839 ft 506 kts 114°
2026-05-06 22:06 55.33223 -121.35560 34867 ft 505 kts 114°
2026-05-06 22:07 55.30526 -121.24234 34851 ft 505 kts 114°
2026-05-06 22:07 55.27804 -121.12871 34860 ft 505 kts 114°
2026-05-06 22:08 55.25076 -121.01534 34848 ft 505 kts 114°
2026-05-06 22:08 55.22328 -120.90178 34854 ft 505 kts 114°
2026-05-06 22:09 55.19572 -120.78845 34840 ft 506 kts 114°
2026-05-06 22:09 55.16801 -120.67514 34846 ft 506 kts 114°
2026-05-06 22:10 55.14040 -120.56279 34841 ft 507 kts 114°
2026-05-06 22:10 55.11239 -120.44938 34854 ft 507 kts 114°
2026-05-06 22:11 55.08432 -120.33634 34844 ft 508 kts 114°
2026-05-06 22:11 55.05623 -120.22372 34849 ft 508 kts 114°
2026-05-06 22:12 55.02794 -120.11085 34841 ft 508 kts 114°
2026-05-06 22:12 54.99983 -119.99786 34848 ft 508 kts 111°
2026-05-06 22:13 54.98131 -119.90074 34851 ft 508 kts 107°
2026-05-06 22:13 54.96068 -119.78296 34849 ft 508 kts 107°
2026-05-06 22:14 54.93987 -119.66524 34842 ft 508 kts 107°
2026-05-06 22:14 54.91868 -119.54776 34850 ft 508 kts 107°
2026-05-06 22:15 54.89726 -119.43055 34850 ft 509 kts 107°
2026-05-06 22:15 54.87568 -119.31327 34861 ft 509 kts 107°
2026-05-06 22:16 54.85416 -119.19693 34853 ft 509 kts 107°
2026-05-06 22:16 54.83235 -119.07967 34854 ft 510 kts 107°
2026-05-06 22:17 54.81046 -118.96277 34853 ft 510 kts 107°
2026-05-06 22:17 54.78856 -118.84645 34855 ft 510 kts 107°
2026-05-06 22:18 54.76646 -118.72987 34845 ft 510 kts 107°
2026-05-06 22:18 54.74418 -118.61301 34849 ft 510 kts 107°
2026-05-06 22:19 54.72184 -118.49659 34840 ft 510 kts 107°
2026-05-06 22:19 54.69936 -118.38017 34844 ft 510 kts 107°
2026-05-06 22:20 54.67677 -118.26386 34838 ft 510 kts 107°
2026-05-06 22:20 54.65409 -118.14776 34839 ft 511 kts 107°
2026-05-06 22:21 54.63122 -118.03141 34837 ft 511 kts 107°
2026-05-06 22:21 54.60838 -117.91590 34831 ft 512 kts 107°
2026-05-06 22:22 54.58528 -117.79975 34825 ft 512 kts 107°
2026-05-06 22:22 54.56203 -117.68359 34829 ft 513 kts 107°
2026-05-06 22:23 54.53866 -117.56748 34812 ft 513 kts 107°
2026-05-06 22:23 54.51510 -117.45116 34813 ft 514 kts 107°
2026-05-06 22:24 54.49160 -117.33575 34798 ft 514 kts 107°
2026-05-06 22:24 54.46779 -117.21954 34808 ft 514 kts 107°
2026-05-06 22:25 54.44389 -117.10351 34804 ft 515 kts 107°
2026-05-06 22:25 54.41986 -116.98756 34801 ft 515 kts 107°
2026-05-06 22:26 54.39569 -116.87162 34803 ft 516 kts 107°
2026-05-06 22:26 54.37138 -116.75571 34805 ft 516 kts 107°
2026-05-06 22:27 54.34711 -116.64062 34801 ft 516 kts 107°
2026-05-06 22:27 54.32257 -116.52487 34816 ft 516 kts 107°
2026-05-06 22:28 54.29793 -116.40936 34815 ft 517 kts 107°
2026-05-06 22:28 54.27314 -116.29379 34822 ft 517 kts 107°
2026-05-06 22:29 54.24837 -116.17894 34816 ft 517 kts 107°
2026-05-06 22:29 54.22336 -116.06366 34813 ft 518 kts 107°
2026-05-06 22:30 54.19819 -115.94831 34807 ft 518 kts 107°
2026-05-06 22:30 54.17294 -115.83318 34806 ft 518 kts 107°
2026-05-06 22:31 54.14751 -115.71793 34806 ft 518 kts 107°
2026-05-06 22:31 54.12202 -115.60300 34807 ft 518 kts 107°
2026-05-06 22:32 54.09637 -115.48798 34817 ft 519 kts 106°
2026-05-06 22:32 54.07068 -115.37345 34822 ft 519 kts 106°
2026-05-06 22:33 54.04492 -115.25921 34825 ft 518 kts 106°
2026-05-06 22:33 54.01896 -115.14469 34833 ft 518 kts 106°
2026-05-06 22:34 53.99292 -115.03044 34833 ft 518 kts 106°
2026-05-06 22:34 53.96667 -114.91594 34833 ft 518 kts 106°
2026-05-06 22:35 53.94040 -114.80195 34834 ft 518 kts 106°
2026-05-06 22:35 53.91412 -114.68848 34839 ft 518 kts 106°
2026-05-06 22:36 53.88760 -114.57464 34835 ft 519 kts 106°
2026-05-06 22:36 53.86099 -114.46100 34837 ft 519 kts 106°
2026-05-06 22:37 53.83425 -114.34737 34835 ft 519 kts 106°
2026-05-06 22:37 53.80754 -114.23417 34851 ft 511 kts 111°
2026-05-06 22:38 53.78153 -114.12491 34823 ft 500 kts 111°
2026-05-06 22:38 53.75531 -114.01542 34820 ft 504 kts 111°
2026-05-06 22:39 53.72882 -113.90526 34812 ft 508 kts 111°
2026-05-06 22:39 53.70205 -113.79439 34817 ft 510 kts 111°
2026-05-06 22:40 53.67510 -113.68335 34820 ft 511 kts 111°
2026-05-06 22:40 53.64821 -113.57313 34824 ft 512 kts 111°
2026-05-06 22:41 53.60741 -113.40695 34850 ft 511 kts 111°
2026-05-06 22:42 53.58011 -113.29647 34871 ft 510 kts 111°
2026-05-06 22:42 53.55272 -113.18618 34877 ft 510 kts 111°
2026-05-06 22:43 53.52526 -113.07612 34886 ft 510 kts 111°
2026-05-06 22:43 53.49769 -112.96618 34892 ft 510 kts 111°
2026-05-06 22:44 53.47001 -112.85636 34896 ft 511 kts 111°
2026-05-06 22:44 53.44214 -112.74633 34900 ft 512 kts 111°
2026-05-06 22:45 53.41418 -112.63647 34905 ft 513 kts 111°
2026-05-06 22:45 53.38619 -112.52706 34910 ft 514 kts 111°
2026-05-06 22:46 53.35787 -112.41688 34913 ft 515 kts 111°
2026-05-06 22:46 53.32940 -112.30665 34921 ft 516 kts 111°
2026-05-06 22:47 53.30078 -112.19639 34924 ft 517 kts 111°
2026-05-06 22:47 53.27204 -112.08622 34927 ft 517 kts 111°
2026-05-06 22:48 53.24332 -111.97664 34936 ft 518 kts 111°
2026-05-06 22:48 53.21431 -111.86649 34941 ft 519 kts 111°
2026-05-06 22:49 53.18513 -111.75625 34943 ft 519 kts 111°
2026-05-06 22:49 53.15580 -111.64598 34948 ft 520 kts 111°
2026-05-06 22:50 53.12637 -111.53586 34945 ft 520 kts 111°
2026-05-06 22:50 53.09701 -111.42650 34950 ft 520 kts 111°
2026-05-06 22:51 53.06735 -111.31659 34954 ft 521 kts 111°
2026-05-06 22:51 53.03764 -111.20701 34959 ft 521 kts 111°
2026-05-06 22:52 53.00767 -111.09699 34964 ft 522 kts 111°
2026-05-06 22:52 52.97764 -110.98726 34966 ft 523 kts 111°
2026-05-06 22:53 52.94743 -110.87742 34969 ft 523 kts 111°
2026-05-06 22:53 52.91726 -110.76822 34975 ft 524 kts 111°
2026-05-06 22:54 52.88677 -110.65840 34972 ft 524 kts 111°
2026-05-06 22:54 52.85616 -110.54864 34982 ft 525 kts 111°
2026-05-06 22:55 52.82545 -110.43904 34976 ft 525 kts 111°
2026-05-06 22:55 52.79456 -110.32934 34985 ft 525 kts 111°
2026-05-06 22:56 52.76358 -110.21980 34979 ft 526 kts 111°
2026-05-06 22:56 52.73269 -110.11103 34982 ft 526 kts 111°
2026-05-06 22:57 52.70165 -110.00149 34982 ft 526 kts 109°
2026-05-06 22:57 52.67625 -109.88908 34994 ft 523 kts 105°
2026-05-06 22:58 52.65233 -109.77567 34992 ft 524 kts 104°
2026-05-06 22:58 52.62828 -109.66294 34993 ft 525 kts 105°
2026-05-06 22:59 52.60783 -109.56856 34997 ft 525 kts 105°
2026-05-06 22:59 52.58302 -109.45530 35002 ft 526 kts 105°
2026-05-06 23:00 52.55807 -109.34206 34998 ft 526 kts 105°
2026-05-06 23:00 52.53303 -109.22893 34997 ft 527 kts 105°
2026-05-06 23:01 52.50805 -109.11662 35014 ft 527 kts 105°
2026-05-06 23:01 52.48276 -109.00352 35019 ft 527 kts 105°
2026-05-06 23:02 52.45738 -108.89063 35018 ft 528 kts 105°
2026-05-06 23:02 52.43190 -108.77789 35025 ft 528 kts 105°
2026-05-06 23:03 52.40625 -108.66505 35024 ft 528 kts 105°
2026-05-06 23:03 52.38051 -108.55240 35022 ft 528 kts 105°
2026-05-06 23:04 52.35482 -108.44056 35025 ft 528 kts 105°
2026-05-06 23:04 52.32883 -108.32797 35031 ft 528 kts 105°
2026-05-06 23:05 52.30274 -108.21561 35006 ft 528 kts 105°
2026-05-06 23:05 52.27656 -108.10340 35007 ft 529 kts 105°
2026-05-06 23:06 52.25024 -107.99123 35001 ft 529 kts 105°
2026-05-06 23:06 52.22378 -107.87902 35010 ft 530 kts 105°
2026-05-06 23:07 52.19738 -107.76763 35014 ft 530 kts 105°
2026-05-06 23:07 52.17065 -107.65540 35016 ft 531 kts 105°
2026-05-06 23:08 52.14379 -107.54325 35019 ft 532 kts 105°
2026-05-06 23:08 52.11675 -107.43096 35019 ft 532 kts 105°
2026-05-06 23:09 52.08961 -107.31879 35019 ft 533 kts 105°
2026-05-06 23:09 52.06235 -107.20674 35014 ft 533 kts 105°
2026-05-06 23:10 52.03497 -107.09475 35005 ft 533 kts 105°
2026-05-06 23:10 52.00746 -106.98282 35004 ft 534 kts 105°
2026-05-06 23:11 51.97987 -106.87109 34998 ft 533 kts 105°
2026-05-06 23:11 51.95215 -106.75943 35002 ft 533 kts 105°
2026-05-06 23:12 51.92436 -106.64804 35006 ft 533 kts 105°
2026-05-06 23:12 51.89649 -106.53687 35013 ft 532 kts 105°
2026-05-06 23:13 51.86872 -106.42667 35030 ft 532 kts 105°
2026-05-06 23:13 51.84068 -106.31594 35038 ft 531 kts 106°
2026-05-06 23:14 51.81254 -106.20537 35039 ft 531 kts 106°
2026-05-06 23:14 51.78431 -106.09499 35041 ft 531 kts 106°
2026-05-06 23:15 51.75600 -105.98481 35023 ft 531 kts 106°
2026-05-06 23:15 51.72780 -105.87564 35035 ft 530 kts 106°
2026-05-06 23:16 51.69935 -105.76599 35038 ft 529 kts 107°
2026-05-06 23:16 51.67084 -105.65667 35036 ft 529 kts 107°
2026-05-06 23:17 51.64223 -105.54748 35038 ft 529 kts 107°
2026-05-06 23:17 51.61352 -105.43843 35035 ft 528 kts 107°
2026-05-06 23:18 51.58470 -105.32946 35035 ft 528 kts 107°
2026-05-06 23:18 51.55580 -105.22072 35036 ft 529 kts 107°
2026-05-06 23:19 51.52701 -105.11293 35043 ft 529 kts 107°
2026-05-06 23:19 51.49785 -105.00425 35043 ft 529 kts 107°
2026-05-06 23:20 51.46859 -104.89568 35035 ft 530 kts 107°
2026-05-06 23:20 51.43924 -104.78734 35045 ft 530 kts 107°
2026-05-06 23:21 51.40973 -104.67890 35048 ft 530 kts 107°
2026-05-06 23:21 51.38014 -104.57068 35054 ft 531 kts 107°
2026-05-06 23:22 51.35038 -104.46231 35160 ft 533 kts 107°
2026-05-06 23:22 51.33546 -104.40817 35504 ft 531 kts 107°
2026-05-06 23:22 51.32069 -104.35477 35893 ft 528 kts 107°
2026-05-06 23:22 51.30584 -104.30120 36273 ft 526 kts 107°
2026-05-06 23:23 51.29101 -104.24780 36618 ft 524 kts 108°
2026-05-06 23:23 51.27620 -104.19457 36898 ft 524 kts 108°
2026-05-06 23:23 51.26133 -104.14117 36992 ft 528 kts 108°
2026-05-06 23:24 51.23136 -104.03392 37048 ft 528 kts 108°
2026-05-06 23:24 51.20139 -103.92743 37038 ft 522 kts 108°
2026-05-06 23:25 51.17180 -103.82267 37050 ft 521 kts 108°
2026-05-06 23:25 51.14199 -103.71748 37053 ft 520 kts 108°
2026-05-06 23:26 51.11205 -103.61230 37056 ft 521 kts 108°
2026-05-06 23:26 51.08202 -103.50730 37056 ft 522 kts 109°
2026-05-06 23:27 51.05180 -103.40213 37050 ft 523 kts 109°
2026-05-06 23:27 51.02163 -103.29760 37047 ft 523 kts 109°
2026-05-06 23:28 50.99112 -103.19240 37046 ft 524 kts 109°
2026-05-06 23:28 50.96050 -103.08723 37047 ft 524 kts 109°
2026-05-06 23:29 50.92984 -102.98239 37044 ft 524 kts 109°
2026-05-06 23:29 50.89905 -102.87761 37029 ft 524 kts 110°
2026-05-06 23:30 50.86820 -102.77304 37037 ft 523 kts 110°
2026-05-06 23:30 50.83743 -102.66922 37033 ft 523 kts 110°
2026-05-06 23:31 50.80643 -102.56504 37035 ft 523 kts 110°
2026-05-06 23:31 50.77553 -102.46166 37035 ft 522 kts 110°
2026-05-06 23:32 50.74439 -102.35792 37033 ft 522 kts 110°
2026-05-06 23:32 50.71316 -102.25429 37034 ft 522 kts 111°
2026-05-06 23:33 50.68191 -102.15106 37038 ft 522 kts 111°
2026-05-06 23:33 50.65053 -102.04788 37035 ft 522 kts 111°
2026-05-06 23:34 50.61904 -101.94474 37036 ft 521 kts 111°
2026-05-06 23:34 50.58753 -101.84197 37037 ft 521 kts 111°
2026-05-06 23:35 50.55596 -101.73941 37033 ft 521 kts 111°
2026-05-06 23:35 50.52451 -101.63770 37027 ft 521 kts 111°
2026-05-06 23:36 50.49272 -101.53531 37031 ft 520 kts 112°
2026-05-06 23:36 50.46087 -101.43316 37031 ft 520 kts 112°
2026-05-06 23:37 50.42895 -101.33118 37033 ft 520 kts 112°
2026-05-06 23:37 50.39694 -101.22937 37029 ft 520 kts 112°
2026-05-06 23:38 50.36489 -101.12784 37027 ft 520 kts 112°
2026-05-06 23:38 50.33275 -101.02641 37027 ft 520 kts 112°
2026-05-06 23:39 50.30074 -100.92584 37027 ft 519 kts 113°
2026-05-06 23:39 50.26844 -100.82478 37028 ft 519 kts 113°
2026-05-06 23:40 50.23603 -100.72376 37026 ft 519 kts 113°
2026-05-06 23:40 50.20359 -100.62305 37022 ft 519 kts 113°
2026-05-06 23:41 50.17101 -100.52232 37018 ft 519 kts 113°
2026-05-06 23:41 50.13845 -100.42204 37015 ft 518 kts 114°
2026-05-06 23:42 50.10579 -100.32187 37004 ft 518 kts 114°
2026-05-06 23:42 50.07329 -100.22259 37001 ft 518 kts 114°
2026-05-06 23:43 50.04048 -100.12273 36976 ft 518 kts 114°
2026-05-06 23:43 50.01316 -100.03982 36965 ft 518 kts 114°
2026-05-06 23:44 49.97943 -99.94078 36966 ft 518 kts 117°
2026-05-06 23:44 49.94296 -99.84397 36965 ft 519 kts 118°
2026-05-06 23:45 49.90611 -99.74783 36971 ft 519 kts 118°
2026-05-06 23:45 49.86964 -99.65166 36985 ft 519 kts 118°
2026-05-06 23:46 49.83326 -99.55515 36995 ft 518 kts 118°
2026-05-06 23:46 49.79679 -99.45859 37008 ft 519 kts 118°
2026-05-06 23:47 49.76025 -99.36228 37013 ft 518 kts 118°
2026-05-06 23:47 49.72382 -99.26670 37012 ft 518 kts 118°
2026-05-06 23:48 49.68711 -99.17075 37015 ft 518 kts 118°
2026-05-06 23:48 49.65032 -99.07495 37013 ft 518 kts 118°
2026-05-06 23:49 49.61338 -98.97908 37015 ft 518 kts 118°
2026-05-06 23:49 49.57671 -98.88426 37015 ft 518 kts 119°
2026-05-06 23:50 49.53972 -98.78897 37017 ft 518 kts 119°
2026-05-06 23:50 49.48406 -98.64624 37018 ft 517 kts 119°
2026-05-06 23:51 49.44691 -98.55138 37018 ft 517 kts 119°
2026-05-06 23:51 49.40993 -98.45732 37017 ft 517 kts 120°
2026-05-06 23:52 49.37269 -98.36291 37019 ft 517 kts 120°
2026-05-06 23:52 49.33536 -98.26864 37015 ft 517 kts 120°
2026-05-06 23:53 49.29797 -98.17452 37018 ft 516 kts 120°
2026-05-06 23:53 49.26047 -98.08048 37017 ft 516 kts 120°
2026-05-06 23:54 49.22315 -97.98724 37023 ft 516 kts 120°
2026-05-06 23:54 49.18553 -97.89354 37021 ft 516 kts 120°
2026-05-06 23:55 49.14788 -97.80011 37024 ft 516 kts 120°
2026-05-06 23:55 49.11006 -97.70659 37026 ft 516 kts 120°
2026-05-06 23:56 49.07226 -97.61346 37026 ft 516 kts 121°
2026-05-06 23:56 49.03436 -97.52038 37029 ft 516 kts 121°
2026-05-06 23:57 48.99666 -97.42813 37029 ft 516 kts 121°
2026-05-06 23:57 48.95865 -97.33546 37024 ft 516 kts 121°
2026-05-06 23:58 48.92055 -97.24283 37017 ft 516 kts 121°
2026-05-06 23:58 48.88245 -97.15051 37006 ft 516 kts 121°
2026-05-06 23:59 48.84346 -97.05901 37000 ft 516 kts 123°
2026-05-06 23:59 48.80218 -96.96985 36994 ft 516 kts 125°
2026-05-07 00:00 48.76051 -96.88107 36985 ft 516 kts 124°
2026-05-07 00:00 48.71917 -96.79223 36994 ft 515 kts 124°
2026-05-07 00:01 48.67822 -96.70381 37015 ft 515 kts 124°
2026-05-07 00:01 48.63698 -96.61492 37023 ft 516 kts 124°
2026-05-07 00:02 48.59571 -96.52629 37038 ft 515 kts 124°
2026-05-07 00:02 48.55439 -96.43789 37049 ft 515 kts 124°
2026-05-07 00:03 48.51300 -96.34967 37049 ft 515 kts 125°
2026-05-07 00:03 48.47168 -96.26188 37051 ft 515 kts 125°
2026-05-07 00:04 48.43010 -96.17381 37050 ft 515 kts 125°
2026-05-07 00:04 48.38849 -96.08597 37045 ft 515 kts 125°
2026-05-07 00:05 48.34712 -95.99891 37044 ft 515 kts 125°
2026-05-07 00:05 48.30539 -95.91137 37042 ft 514 kts 125°
2026-05-07 00:06 48.26363 -95.82406 37044 ft 515 kts 125°
2026-05-07 00:06 48.22171 -95.73670 37039 ft 515 kts 126°
2026-05-07 00:07 48.18003 -95.65010 37039 ft 515 kts 126°
2026-05-07 00:07 48.13805 -95.56318 37036 ft 515 kts 126°
2026-05-07 00:08 48.09601 -95.47640 37034 ft 515 kts 126°
2026-05-07 00:08 48.05382 -95.38958 37030 ft 515 kts 126°
2026-05-07 00:09 48.01193 -95.30367 37027 ft 515 kts 126°
2026-05-07 00:09 47.96972 -95.21736 37023 ft 515 kts 126°
2026-05-07 00:10 47.92733 -95.13096 37025 ft 515 kts 126°
2026-05-07 00:10 47.88494 -95.04484 37024 ft 515 kts 126°
2026-05-07 00:11 47.84245 -94.95878 37025 ft 515 kts 126°
2026-05-07 00:11 47.80018 -94.87344 37022 ft 515 kts 127°
2026-05-07 00:12 47.75749 -94.78753 37023 ft 515 kts 127°
2026-05-07 00:12 47.71479 -94.70184 37025 ft 515 kts 127°
2026-05-07 00:13 47.67201 -94.61628 37027 ft 515 kts 127°
2026-05-07 00:13 47.62918 -94.53088 37031 ft 515 kts 127°
2026-05-07 00:14 47.58658 -94.44621 37040 ft 516 kts 127°
2026-05-07 00:14 47.54337 -94.36059 37040 ft 516 kts 127°
2026-05-07 00:15 47.50066 -94.27622 37044 ft 516 kts 127°
2026-05-07 00:15 47.45758 -94.19138 37048 ft 516 kts 127°
2026-05-07 00:16 47.41437 -94.10655 37049 ft 516 kts 127°
2026-05-07 00:16 47.37105 -94.02177 37055 ft 516 kts 128°
2026-05-07 00:17 47.32798 -93.93773 37048 ft 516 kts 128°
2026-05-07 00:17 47.28463 -93.85342 37040 ft 516 kts 128°
2026-05-07 00:18 47.24104 -93.76887 37030 ft 517 kts 128°
2026-05-07 00:18 47.19754 -93.68478 37024 ft 517 kts 128°
2026-05-07 00:19 47.15392 -93.60071 37019 ft 517 kts 128°
2026-05-07 00:19 47.11048 -93.51724 37020 ft 517 kts 128°
2026-05-07 00:20 47.06668 -93.43334 37027 ft 517 kts 128°
2026-05-07 00:20 47.02292 -93.34975 37037 ft 517 kts 128°
2026-05-07 00:21 46.97940 -93.26688 37045 ft 517 kts 129°
2026-05-07 00:21 46.93518 -93.18294 37048 ft 517 kts 129°
2026-05-07 00:22 46.89119 -93.09969 37048 ft 517 kts 129°
2026-05-07 00:22 46.84735 -93.01696 37043 ft 517 kts 129°
2026-05-07 00:23 46.80322 -92.93392 37040 ft 517 kts 129°
2026-05-07 00:23 46.75902 -92.85102 37023 ft 517 kts 129°
2026-05-07 00:24 46.71474 -92.76822 37012 ft 518 kts 129°
2026-05-07 00:24 46.67054 -92.68581 36997 ft 518 kts 129°
2026-05-07 00:25 46.62610 -92.60320 36993 ft 518 kts 129°
2026-05-07 00:25 46.58903 -92.53446 36994 ft 519 kts 130°
2026-05-07 00:26 46.53682 -92.43796 37005 ft 519 kts 130°
2026-05-07 00:26 46.49230 -92.35593 37018 ft 519 kts 130°
2026-05-07 00:27 46.44749 -92.27362 37037 ft 520 kts 130°
2026-05-07 00:27 46.40264 -92.19147 37031 ft 520 kts 130°
2026-05-07 00:28 46.35767 -92.10935 37025 ft 520 kts 130°
2026-05-07 00:28 46.32028 -92.04126 37016 ft 520 kts 130°
2026-05-07 00:29 46.27506 -91.95911 37010 ft 520 kts 130°
2026-05-07 00:30 46.18471 -91.79573 37014 ft 521 kts 131°
2026-05-07 00:30 46.13936 -91.71407 37020 ft 521 kts 131°
2026-05-07 00:31 46.09421 -91.63303 37017 ft 521 kts 131°
2026-05-07 00:31 46.04877 -91.55169 37010 ft 521 kts 131°
2026-05-07 00:32 46.00322 -91.47040 37007 ft 522 kts 131°
2026-05-07 00:32 45.95762 -91.38926 37007 ft 522 kts 131°
2026-05-07 00:33 45.91191 -91.30814 37014 ft 522 kts 131°
2026-05-07 00:33 45.86607 -91.22705 37026 ft 522 kts 131°
2026-05-07 00:34 45.82046 -91.14658 37037 ft 522 kts 131°
2026-05-07 00:34 45.77454 -91.06580 37047 ft 522 kts 132°
2026-05-07 00:35 45.72857 -90.98518 37040 ft 523 kts 132°
2026-05-07 00:35 45.68255 -90.90468 37039 ft 523 kts 132°
2026-05-07 00:36 45.63636 -90.82414 37037 ft 523 kts 132°
2026-05-07 00:36 45.59013 -90.74374 37042 ft 524 kts 132°
2026-05-07 00:37 45.54381 -90.66342 37038 ft 524 kts 132°
2026-05-07 00:37 45.49742 -90.58321 37021 ft 524 kts 133°
2026-05-07 00:38 45.45118 -90.50348 37037 ft 524 kts 133°
2026-05-07 00:38 45.40459 -90.42339 37042 ft 525 kts 133°
2026-05-07 00:39 45.35795 -90.34345 37033 ft 525 kts 133°
2026-05-07 00:39 45.31127 -90.26365 37027 ft 525 kts 133°
2026-05-07 00:40 45.26448 -90.18389 37024 ft 525 kts 133°
2026-05-07 00:40 45.21761 -90.10422 37014 ft 525 kts 133°
2026-05-07 00:41 45.17104 -90.02528 37023 ft 525 kts 133°
2026-05-07 00:41 45.12407 -89.94589 37029 ft 525 kts 133°
2026-05-07 00:42 45.07702 -89.86659 37024 ft 526 kts 134°
2026-05-07 00:42 45.02988 -89.78736 37019 ft 526 kts 134°
2026-05-07 00:43 44.98270 -89.70829 37007 ft 526 kts 134°
2026-05-07 00:43 44.93571 -89.62975 37008 ft 527 kts 134°
2026-05-07 00:44 44.88808 -89.55036 37005 ft 527 kts 134°
2026-05-07 00:44 44.84096 -89.47204 37011 ft 527 kts 134°
2026-05-07 00:45 44.79343 -89.39326 37012 ft 527 kts 134°
2026-05-07 00:45 44.74586 -89.31464 37017 ft 528 kts 134°
2026-05-07 00:46 44.69808 -89.23590 36769 ft 532 kts 135°
2026-05-07 00:46 44.67567 -89.19906 36406 ft 531 kts 135°
2026-05-07 00:46 44.65242 -89.16083 36427 ft 523 kts 135°
2026-05-07 00:47 44.62973 -89.12359 36140 ft 529 kts 135°
2026-05-07 00:47 44.60571 -89.08426 35778 ft 529 kts 135°
2026-05-07 00:47 44.58210 -89.04563 35433 ft 528 kts 135°
2026-05-07 00:47 44.55884 -89.00762 35100 ft 526 kts 135°
2026-05-07 00:48 44.53460 -88.96806 34747 ft 524 kts 135°
2026-05-07 00:48 44.51117 -88.92986 34379 ft 521 kts 135°
2026-05-07 00:48 44.48731 -88.89101 33911 ft 516 kts 135°
2026-05-07 00:48 44.46402 -88.85313 33388 ft 511 kts 135°
2026-05-07 00:49 44.44085 -88.81553 32934 ft 506 kts 135°
2026-05-07 00:49 44.41824 -88.77887 32484 ft 501 kts 135°
2026-05-07 00:49 44.39549 -88.74205 32021 ft 495 kts 135°
2026-05-07 00:49 44.37306 -88.70579 31566 ft 491 kts 135°
2026-05-07 00:50 44.35081 -88.66988 31126 ft 486 kts 135°
2026-05-07 00:50 44.32877 -88.63434 30691 ft 482 kts 135°
2026-05-07 00:50 44.30695 -88.59921 30258 ft 478 kts 135°
2026-05-07 00:50 44.28523 -88.56427 29762 ft 474 kts 135°
2026-05-07 00:51 44.26374 -88.52974 29273 ft 470 kts 135°
2026-05-07 00:51 44.24240 -88.49550 28817 ft 464 kts 136°
2026-05-07 00:51 44.21938 -88.46637 28368 ft 444 kts 154°
2026-05-07 00:51 44.19213 -88.44933 28074 ft 419 kts 173°
2026-05-07 00:52 44.16365 -88.44298 28033 ft 413 kts 184°
2026-05-07 00:52 44.13482 -88.44366 28013 ft 415 kts 195°
2026-05-07 00:52 44.08008 -88.46518 27996 ft 407 kts 205°
2026-05-07 00:53 44.05323 -88.47739 27989 ft 406 kts 205°
2026-05-07 00:53 44.02644 -88.48948 27991 ft 404 kts 205°
2026-05-07 00:53 43.99962 -88.50139 27990 ft 404 kts 205°
2026-05-07 00:53 43.97282 -88.51310 27993 ft 403 kts 205°
2026-05-07 00:54 43.94606 -88.52468 27994 ft 402 kts 205°
2026-05-07 00:54 43.91935 -88.53615 27995 ft 402 kts 205°
2026-05-07 00:54 43.89299 -88.54743 27996 ft 402 kts 205°
2026-05-07 00:54 43.86592 -88.55899 28007 ft 402 kts 205°
2026-05-07 00:55 43.81245 -88.58179 28009 ft 402 kts 205°
2026-05-07 00:55 43.78603 -88.59304 27999 ft 403 kts 205°
2026-05-07 00:55 43.75925 -88.60444 27992 ft 403 kts 205°
2026-05-07 00:56 43.73239 -88.61586 27999 ft 403 kts 205°
2026-05-07 00:56 43.70556 -88.62725 28002 ft 403 kts 205°
2026-05-07 00:56 43.67866 -88.63867 27993 ft 403 kts 205°
2026-05-07 00:56 43.65175 -88.65007 28001 ft 403 kts 205°
2026-05-07 00:57 43.62496 -88.66143 27998 ft 403 kts 205°
2026-05-07 00:57 43.59811 -88.67279 28011 ft 403 kts 205°
2026-05-07 00:57 43.54495 -88.69572 28012 ft 402 kts 206°
2026-05-07 00:58 43.49181 -88.71922 27785 ft 403 kts 206°
2026-05-07 00:58 43.46512 -88.73103 27358 ft 404 kts 206°
2026-05-07 00:58 43.43848 -88.74273 26963 ft 400 kts 206°
2026-05-07 00:59 43.38580 -88.76581 25991 ft 395 kts 206°
2026-05-07 00:59 43.35965 -88.77726 25505 ft 393 kts 206°
2026-05-07 00:59 43.33366 -88.78862 24998 ft 391 kts 205°
2026-05-07 01:00 43.30781 -88.79992 24510 ft 389 kts 205°
2026-05-07 01:00 43.28139 -88.80876 24018 ft 395 kts 196°
2026-05-07 01:00 43.25409 -88.81181 23554 ft 400 kts 188°
2026-05-07 01:00 43.22609 -88.81055 22988 ft 405 kts 181°
2026-05-07 01:01 43.19810 -88.80589 22439 ft 404 kts 180°
2026-05-07 01:01 43.17028 -88.80094 21905 ft 402 kts 179°
2026-05-07 01:01 43.14257 -88.79598 21376 ft 400 kts 179°
2026-05-07 01:01 43.11500 -88.79110 20851 ft 399 kts 179°
2026-05-07 01:02 43.08773 -88.78635 20344 ft 397 kts 180°
2026-05-07 01:02 43.06037 -88.78164 19833 ft 395 kts 179°
2026-05-07 01:02 43.03312 -88.77700 19331 ft 394 kts 179°
2026-05-07 01:02 43.00590 -88.77239 18844 ft 392 kts 179°
2026-05-07 01:03 42.97920 -88.76788 18370 ft 390 kts 179°
2026-05-07 01:03 42.95229 -88.76334 17825 ft 389 kts 179°
2026-05-07 01:03 42.92549 -88.75883 17284 ft 387 kts 179°
2026-05-07 01:03 42.89879 -88.75433 16748 ft 385 kts 179°
2026-05-07 01:04 42.87221 -88.74987 16221 ft 383 kts 179°
2026-05-07 01:04 42.84584 -88.74544 15732 ft 381 kts 179°
2026-05-07 01:04 42.81964 -88.74102 15337 ft 375 kts 179°
2026-05-07 01:04 42.79389 -88.73668 14951 ft 370 kts 179°
2026-05-07 01:05 42.76883 -88.73247 14577 ft 366 kts 179°
2026-05-07 01:05 42.74333 -88.72819 14252 ft 360 kts 179°
2026-05-07 01:05 42.71909 -88.72412 14039 ft 351 kts 179°
2026-05-07 01:05 42.69509 -88.72009 13821 ft 343 kts 179°
2026-05-07 01:06 42.67175 -88.71619 13591 ft 339 kts 179°
2026-05-07 01:06 42.64829 -88.71232 13370 ft 341 kts 179°
2026-05-07 01:06 42.62458 -88.70842 13164 ft 344 kts 179°
2026-05-07 01:06 42.60066 -88.70446 12936 ft 345 kts 179°
2026-05-07 01:07 42.57718 -88.70053 12723 ft 343 kts 178°
2026-05-07 01:07 42.55357 -88.69659 12509 ft 341 kts 178°
2026-05-07 01:07 42.53003 -88.69267 12298 ft 339 kts 178°
2026-05-07 01:07 42.50660 -88.68877 12084 ft 338 kts 178°
2026-05-07 01:08 42.48324 -88.68489 11872 ft 337 kts 178°
2026-05-07 01:08 42.46005 -88.68105 11660 ft 335 kts 178°
2026-05-07 01:08 42.43706 -88.67687 11396 ft 330 kts 173°
2026-05-07 01:08 42.41631 -88.66360 11088 ft 341 kts 142°
2026-05-07 01:09 42.40070 -88.63914 11063 ft 348 kts 124°
2026-05-07 01:09 42.38822 -88.61082 11037 ft 352 kts 121°
2026-05-07 01:09 42.37628 -88.58175 11020 ft 353 kts 120°
2026-05-07 01:09 42.36452 -88.55259 11012 ft 352 kts 120°
2026-05-07 01:10 42.35290 -88.52387 11009 ft 351 kts 120°
2026-05-07 01:10 42.34106 -88.49485 11007 ft 351 kts 120°
2026-05-07 01:10 42.32920 -88.46597 11028 ft 351 kts 120°
2026-05-07 01:10 42.31727 -88.43712 11001 ft 351 kts 120°
2026-05-07 01:11 42.30534 -88.40838 11006 ft 351 kts 121°
2026-05-07 01:11 42.29336 -88.37957 11004 ft 351 kts 121°
2026-05-07 01:11 42.28136 -88.35081 11000 ft 351 kts 121°
2026-05-07 01:11 42.26934 -88.32276 11001 ft 347 kts 125°
2026-05-07 01:12 42.25391 -88.29789 11018 ft 344 kts 137°
2026-05-07 01:12 42.23685 -88.27512 11004 ft 346 kts 138°
2026-05-07 01:12 42.21966 -88.25243 11008 ft 347 kts 138°
2026-05-07 01:12 42.20235 -88.22949 11016 ft 349 kts 138°
2026-05-07 01:13 42.18509 -88.20647 11001 ft 350 kts 138°
2026-05-07 01:13 42.16779 -88.18324 10995 ft 351 kts 137°
2026-05-07 01:13 42.15046 -88.15989 11010 ft 352 kts 137°
2026-05-07 01:13 42.13328 -88.13670 11013 ft 352 kts 137°
2026-05-07 01:14 42.11581 -88.11310 11012 ft 352 kts 137°
2026-05-07 01:14 42.09872 -88.09002 10997 ft 352 kts 137°
2026-05-07 01:14 42.08130 -88.06649 10856 ft 347 kts 137°
2026-05-07 01:14 42.07008 -88.05133 10673 ft 344 kts 137°
2026-05-07 01:15 42.04797 -88.02151 10335 ft 336 kts 137°
2026-05-07 01:15 42.03156 -87.99939 10093 ft 329 kts 137°
2026-05-07 01:15 42.01564 -87.97795 10009 ft 318 kts 137°
2026-05-07 01:15 42.00034 -87.95734 9988 ft 305 kts 137°
2026-05-07 01:16 41.98567 -87.93762 9909 ft 298 kts 137°
2026-05-07 01:16 41.97577 -87.92435 9744 ft 302 kts 137°
2026-05-07 01:16 41.96091 -87.90442 9479 ft 301 kts 137°
2026-05-07 01:16 41.94618 -87.88465 9201 ft 298 kts 137°
2026-05-07 01:17 41.93167 -87.86518 8926 ft 294 kts 137°
2026-05-07 01:17 41.91730 -87.84594 8653 ft 291 kts 137°
2026-05-07 01:17 41.90291 -87.82669 8382 ft 287 kts 137°
2026-05-07 01:17 41.88704 -87.79917 7985 ft 283 kts 110°
2026-05-07 01:18 41.88408 -87.78185 7822 ft 281 kts 92°
2026-05-07 01:18 41.88384 -87.75560 7610 ft 284 kts 88°
2026-05-07 01:18 41.88393 -87.72883 7366 ft 289 kts 88°
2026-05-07 01:18 41.88400 -87.70216 7077 ft 290 kts 88°
2026-05-07 01:19 41.88404 -87.67501 6701 ft 291 kts 88°
2026-05-07 01:19 41.88404 -87.64776 6334 ft 292 kts 89°
2026-05-07 01:19 41.88401 -87.62044 5943 ft 294 kts 89°
2026-05-07 01:19 41.88398 -87.59295 5559 ft 294 kts 88°
2026-05-07 01:20 41.88713 -87.56637 5143 ft 286 kts 64°
2026-05-07 01:20 41.89836 -87.54549 5008 ft 268 kts 34°
2026-05-07 01:20 41.91423 -87.53524 4976 ft 242 kts
2026-05-07 01:20 41.93044 -87.53330 5007 ft 231 kts 357°
2026-05-07 01:21 41.94603 -87.53520 4972 ft 220 kts 335°
2026-05-07 01:21 41.95749 -87.54690 4976 ft 204 kts 301°
2026-05-07 01:21 41.96176 -87.56439 5005 ft 197 kts 281°
2026-05-07 01:21 41.96371 -87.58266 5001 ft 197 kts 279°
2026-05-07 01:22 41.96528 -87.60090 4997 ft 197 kts 276°
2026-05-07 01:22 41.96595 -87.61945 4775 ft 203 kts 273°
2026-05-07 01:22 41.96611 -87.63858 4484 ft 206 kts 272°
2026-05-07 01:22 41.96610 -87.65788 4172 ft 208 kts 272°
2026-05-07 01:23 41.96609 -87.67738 3868 ft 208 kts 272°
2026-05-07 01:23 41.96605 -87.69685 3583 ft 207 kts 272°
2026-05-07 01:23 41.96600 -87.71568 3310 ft 203 kts 272°
2026-05-07 01:23 41.96597 -87.73416 3018 ft 193 kts 271°
2026-05-07 01:24 41.96594 -87.75153 2772 ft 181 kts 272°
2026-05-07 01:24 41.96592 -87.76782 2532 ft 167 kts 272°
2026-05-07 01:24 41.96591 -87.78268 2313 ft 151 kts 273°
2026-05-07 01:24 41.96589 -87.79622 2113 ft 143 kts 273°
2026-05-07 01:25 41.96587 -87.80914 1956 ft 135 kts 274°
2026-05-07 01:25 41.96586 -87.82179 1747 ft 135 kts 274°
2026-05-07 01:25 41.96584 -87.83387 1558 ft 136 kts 273°
2026-05-07 01:25 41.96583 -87.84677 1361 ft 134 kts 273°
2026-05-07 01:26 41.96579 -87.85928 1178 ft 134 kts 272°
2026-05-07 01:26 41.96577 -87.87196 995 ft 141 kts 271°
2026-05-07 01:26 41.96577 -87.88546 821 ft 144 kts 273°
2026-05-07 01:26 41.96575 -87.89855 681 ft 133 kts 274°
2026-05-07 01:27 41.96576 -87.90946 674 ft 100 kts 270°
2026-05-07 01:27 41.96586 -87.91616 674 ft 46 kts 280°
2026-05-07 01:27 41.96659 -87.91855 673 ft 8 kts 316°
2026-05-07 01:27 41.96713 -87.91859 674 ft 8 kts 31°
2026-05-07 01:28 41.96736 -87.91787 674 ft 9 kts 82°
2026-05-07 01:28 41.96737 -87.91703 674 ft 10 kts 90°
2026-05-07 01:28 41.96737 -87.91561 674 ft 19 kts 90°
2026-05-07 01:28 41.96738 -87.91384 674 ft 19 kts 90°
2026-05-07 01:29 41.96738 -87.91205 674 ft 19 kts 90°
2026-05-07 01:29 41.96738 -87.91025 673 ft 19 kts 90°
2026-05-07 01:29 41.96738 -87.90846 674 ft 19 kts 89°
2026-05-07 01:29 41.96739 -87.90666 673 ft 19 kts 89°
2026-05-07 01:30 41.96738 -87.90487 673 ft 19 kts 89°
2026-05-07 01:30 41.96740 -87.90308 674 ft 19 kts 89°
2026-05-07 01:30 41.96739 -87.90129 674 ft 19 kts 90°
2026-05-07 01:30 41.96740 -87.89949 674 ft 19 kts 89°
2026-05-07 01:31 41.96740 -87.89772 674 ft 19 kts 91°
2026-05-07 01:31 41.96740 -87.89593 674 ft 19 kts 89°
2026-05-07 01:31 41.96741 -87.89413 674 ft 19 kts 90°
2026-05-07 01:31 41.96741 -87.89241 674 ft 17 kts 88°
2026-05-07 01:32 41.96789 -87.89103 673 ft 17 kts 51°
2026-05-07 01:32 41.96898 -87.89068 673 ft 17 kts 359°
2026-05-07 01:32 41.97014 -87.89070 673 ft 17 kts 360°
2026-05-07 01:32 41.97126 -87.89071 674 ft 13 kts 360°
2026-05-07 01:33 41.97190 -87.89022 674 ft 11 kts 70°
2026-05-07 01:33 41.97210 -87.88939 674 ft 8 kts 37°
2026-05-07 01:33 41.97263 -87.88915 674 ft 8 kts 28°
2026-05-07 01:33 41.97319 -87.88899 674 ft 8 kts
2026-05-07 01:34 41.97341 -87.88898 674 ft 3 kts
2026-05-07 01:34 41.97349 -87.88898 674 ft 0 kts
2026-05-07 01:34 41.97351 -87.88898 674 ft 0 kts 360°
2026-05-07 01:34 41.97352 -87.88898 674 ft 0 kts 360°